CW9600 Weather Reports


Display with metric or nautical units.
time (UTC)temp
F
wind
direction
speed
MPH
gust
MPH
rain 1hr
in
rain 24hr
in
rain mn
in
humidity
%
barometer
mb
20260906143102 73 191 15.0 22.0 0.00 0.00 0.00 57 1021.9
20260906143002 73 192 16.0 24.0 0.00 0.00 0.00 56 1021.9
20260906142902 73 192 16.0 25.0 0.00 0.00 0.00 57 1021.9
20260906142802 73 193 16.0 25.0 0.00 0.00 0.00 57 1021.9
20260906142702 73 195 17.0 25.0 0.00 0.00 0.00 57 1021.9
20260906142602 73 196 17.0 25.0 0.00 0.00 0.00 57 1021.9
20260906142502 72 196 17.0 25.0 0.00 0.00 0.00 56 1021.9
20260906142402 72 196 17.0 25.0 0.00 0.00 0.00 56 1021.9
20260906142306 72 197 18.0 25.0 0.00 0.00 0.00 55 1021.9
20260906142202 72 198 18.0 25.0 0.00 0.00 0.00 56 1021.9
20260906142103 72 199 18.0 25.0 0.00 0.00 0.00 57 1021.9
20260906142002 72 198 18.0 25.0 0.00 0.00 0.00 57 1021.9
20260906141902 72 198 18.0 24.0 0.00 0.00 0.00 57 1021.9
20260906141802 72 197 18.0 24.0 0.00 0.00 0.00 56 1021.9
20260906141702 72 196 17.0 24.0 0.00 0.00 0.00 56 1021.9
20260906141602 72 196 17.0 24.0 0.00 0.00 0.00 56 1021.9
20260906141502 72 196 17.0 24.0 0.00 0.00 0.00 57 1021.9
20260906141402 72 195 16.0 24.0 0.00 0.00 0.00 57 1021.9
20260906141303 72 193 15.0 24.0 0.00 0.00 0.00 57 1021.9
20260906141202 72 192 15.0 24.0 0.00 0.00 0.00 56 1021.9
20260906141102 72 192 14.0 24.0 0.00 0.00 0.00 56 1021.9
20260906141003 72 192 13.0 24.0 0.00 0.00 0.00 56 1021.9
20260906140923 72 192 13.0 21.0 0.00 0.00 0.00 56 1021.9
20260906140802 72 191 12.0 21.0 0.00 0.00 0.00 57 1021.9
20260906140702 72 190 11.0 21.0 0.00 0.00 0.00 56 1021.9
20260906140602 72 188 11.0 21.0 0.00 0.00 0.00 56 1021.9
20260906140502 72 189 11.0 21.0 0.00 0.00 0.00 56 1021.9
20260906140402 73 189 11.0 20.0 0.00 0.00 0.00 58 1021.9
20260906140302 72 190 10.0 16.0 0.00 0.00 0.00 58 1021.9
20260906140223 72 188 10.0 16.0 0.00 0.00 0.00 58 1021.9
20260906140124 72 188 10.0 18.0 0.00 0.00 0.00 59 1021.9
20260906140002 72 190 11.0 18.0 0.00 0.00 0.00 58 1021.9
20260906135902 72 191 11.0 18.0 0.00 0.00 0.00 59 1021.9
20260906135802 71 192 12.0 18.0 0.00 0.00 0.00 59 1021.9
20260906135703 71 193 13.0 21.0 0.00 0.00 0.00 60 1021.9
20260906135602 71 194 13.0 21.0 0.00 0.00 0.00 59 1021.9
20260906135502 71 194 13.0 21.0 0.00 0.00 0.00 59 1021.9
20260906135402 70 195 13.0 21.0 0.00 0.00 0.00 58 1021.9
20260906135305 70 195 14.0 21.0 0.00 0.00 0.00 60 1021.9
20260906135202 70 195 13.0 21.0 0.00 0.00 0.00 59 1021.9
20260906135102 70 195 13.0 21.0 0.00 0.00 0.00 59 1021.9
20260906135023 70 194 13.0 21.0 0.00 0.00 0.00 59 1021.9
20260906134902 70 195 14.0 21.0 0.00 0.00 0.00 57 1021.9
20260906134802 70 197 14.0 21.0 0.00 0.00 0.00 57 1021.9
20260906134702 71 198 14.0 21.0 0.00 0.00 0.00 57 1021.9
20260906134602 71 199 14.0 21.0 0.00 0.00 0.00 58 1021.9
20260906134523 71 199 14.0 21.0 0.00 0.00 0.00 58 1021.9
20260906134402 71 201 14.0 21.0 0.00 0.00 0.00 58 1021.9
20260906134302 71 201 14.0 21.0 0.00 0.00 0.00 58 1021.9
20260906134224 71 201 14.0 21.0 0.00 0.00 0.00 58 1021.9
20260906134102 71 201 14.0 21.0 0.00 0.00 0.00 59 1021.9
20260906134002 71 202 14.0 21.0 0.00 0.00 0.00 58 1021.9
20260906133902 71 201 14.0 21.0 0.00 0.00 0.00 59 1021.9
20260906133802 71 199 14.0 20.0 0.00 0.00 0.00 59 1021.9
20260906133723 71 199 14.0 20.0 0.00 0.00 0.00 59 1021.9
20260906133602 71 198 13.0 20.0 0.00 0.00 0.00 59 1021.9
20260906133502 71 197 13.0 20.0 0.00 0.00 0.00 59 1021.9
20260906133423 71 197 13.0 20.0 0.00 0.00 0.00 59 1021.9
20260906133302 71 196 12.0 20.0 0.00 0.00 0.00 59 1021.9
20260906133202 71 197 12.0 20.0 0.00 0.00 0.00 59 1021.9
20260906133102 71 196 12.0 20.0 0.00 0.00 0.00 59 1021.9
20260906133002 71 195 12.0 20.0 0.00 0.00 0.00 59 1021.9
20260906132902 71 195 12.0 20.0 0.00 0.00 0.00 60 1021.9
20260906132802 71 196 12.0 18.0 0.00 0.00 0.00 60 1021.9
20260906132702 71 197 11.0 18.0 0.00 0.00 0.00 61 1021.9
20260906132602 71 196 11.0 18.0 0.00 0.00 0.00 61 1021.9
20260906132502 70 194 11.0 18.0 0.00 0.00 0.00 60 1021.9
20260906132423 70 194 11.0 18.0 0.00 0.00 0.00 60 1021.9
20260906132306 70 198 11.0 18.0 0.00 0.00 0.00 61 1021.9
20260906132202 70 199 11.0 18.0 0.00 0.00 0.00 60 1021.9
20260906132102 70 199 11.0 18.0 0.00 0.00 0.00 60 1021.9
20260906132003 70 199 11.0 18.0 0.00 0.00 0.00 60 1021.9
20260906131902 70 200 11.0 18.0 0.00 0.00 0.00 60 1021.9
20260906131802 70 200 11.0 18.0 0.00 0.00 0.00 60 1021.9
20260906131702 70 200 12.0 18.0 0.00 0.00 0.00 60 1021.9
20260906131602 70 203 12.0 18.0 0.00 0.00 0.00 60 1021.9
20260906131502 70 204 13.0 18.0 0.00 0.00 0.00 60 1021.9
20260906131402 70 204 13.0 18.0 0.00 0.00 0.00 60 1021.9
20260906131302 70 203 13.0 18.0 0.00 0.00 0.00 61 1021.9
20260906131202 70 202 13.0 18.0 0.00 0.00 0.00 61 1021.9
20260906131102 70 202 13.0 18.0 0.00 0.00 0.00 61 1021.9
20260906131002 70 202 13.0 18.0 0.00 0.00 0.00 60 1021.9
20260906130902 70 202 13.0 18.0 0.00 0.00 0.00 60 1021.9
20260906130802 70 202 13.0 18.0 0.00 0.00 0.00 59 1021.9
20260906130723 70 201 13.0 18.0 0.00 0.00 0.00 59 1021.9
20260906130602 70 200 13.0 20.0 0.00 0.00 0.00 59 1021.9
20260906130502 70 200 13.0 20.0 0.00 0.00 0.00 59 1021.9
20260906130402 70 200 13.0 20.0 0.00 0.00 0.00 60 1021.9
20260906130323 70 200 13.0 20.0 0.00 0.00 0.00 60 1021.9
20260906130223 70 201 13.0 20.0 0.00 0.00 0.00 60 1021.9
20260906130002 70 200 14.0 20.0 0.00 0.00 0.00 57 1021.9
20260906125902 70 201 14.0 20.0 0.00 0.00 0.00 56 1021.9
20260906125802 70 201 14.0 20.0 0.00 0.00 0.00 55 1021.9
20260906125702 70 202 14.0 20.0 0.00 0.00 0.00 57 1021.9
20260906125602 70 202 14.0 20.0 0.00 0.00 0.00 57 1021.9
20260906125502 70 202 14.0 20.0 0.00 0.00 0.00 58 1021.9
20260906125402 70 202 14.0 20.0 0.00 0.00 0.00 60 1021.9
20260906125305 70 202 14.0 20.0 0.00 0.00 0.00 59 1021.9
20260906125202 70 202 14.0 20.0 0.00 0.00 0.00 62 1021.9
20260906125102 70 203 14.0 20.0 0.00 0.00 0.00 63 1021.9
20260906125002 70 204 14.0 20.0 0.00 0.00 0.00 62 1021.9
20260906124902 70 204 14.0 20.0 0.00 0.00 0.00 63 1021.9
20260906124802 70 204 14.0 19.0 0.00 0.00 0.00 64 1021.9
20260906124702 69 203 14.0 18.0 0.00 0.00 0.00 64 1021.9
20260906124602 69 202 14.0 22.0 0.00 0.00 0.00 62 1021.9
20260906124523 69 202 14.0 22.0 0.00 0.00 0.00 62 1021.9
20260906124402 69 201 15.0 22.0 0.00 0.00 0.00 65 1021.9
20260906124302 69 201 15.0 22.0 0.00 0.00 0.00 65 1021.9
20260906124223 69 201 15.0 22.0 0.00 0.00 0.00 65 1021.9
20260906124103 68 202 16.0 22.0 0.00 0.00 0.00 66 1021.9
20260906124002 68 202 16.0 22.0 0.00 0.00 0.00 65 1021.9
20260906123924 68 202 16.0 22.0 0.00 0.00 0.00 65 1021.9
20260906123802 68 203 16.0 22.0 0.00 0.00 0.00 64 1021.9
20260906123702 68 204 15.0 22.0 0.00 0.00 0.00 62 1021.9
20260906123623 69 204 15.0 22.0 0.00 0.00 0.00 62 1021.9
20260906123502 69 205 15.0 20.0 0.00 0.00 0.00 60 1021.9
20260906123402 69 205 15.0 20.0 0.00 0.00 0.00 60 1021.9
20260906123302 69 205 15.0 22.0 0.00 0.00 0.00 58 1021.9
20260906123202 69 204 14.0 22.0 0.00 0.00 0.00 59 1021.9
20260906123102 70 204 13.0 22.0 0.00 0.00 0.00 58 1021.9
20260906123002 70 204 13.0 22.0 0.00 0.00 0.00 59 1021.9
20260906122902 70 204 13.0 22.0 0.00 0.00 0.00 60 1021.9
20260906122802 70 204 13.0 22.0 0.00 0.00 0.00 60 1021.9
20260906122702 70 204 12.0 22.0 0.00 0.00 0.00 59 1021.9
20260906122602 70 205 12.0 22.0 0.00 0.00 0.00 60 1021.9
20260906122502 70 205 12.0 22.0 0.00 0.00 0.00 60 1021.9
20260906122402 70 206 11.0 22.0 0.00 0.00 0.00 61 1021.9
20260906122305 70 206 11.0 19.0 0.00 0.00 0.00 62 1021.9
20260906122202 70 206 11.0 19.0 0.00 0.00 0.00 62 1021.9
20260906122102 70 205 12.0 19.0 0.00 0.00 0.00 61 1021.9
20260906122002 70 205 12.0 19.0 0.00 0.00 0.00 62 1021.9
20260906121902 70 206 13.0 19.0 0.00 0.00 0.00 62 1021.9
20260906121802 70 206 13.0 21.0 0.00 0.00 0.00 62 1021.9
20260906121702 70 206 13.0 21.0 0.00 0.00 0.00 62 1021.9
20260906121602 70 206 14.0 21.0 0.00 0.00 0.00 63 1021.9
20260906121502 70 206 14.0 21.0 0.00 0.00 0.00 62 1021.9
20260906121402 70 206 14.0 21.0 0.00 0.00 0.00 62 1021.9
20260906121302 70 206 15.0 21.0 0.00 0.00 0.00 62 1021.9
20260906121202 70 206 15.0 21.0 0.00 0.00 0.00 62 1021.9
20260906121124 70 206 15.0 21.0 0.00 0.00 0.00 62 1021.9
20260906121002 69 205 15.0 21.0 0.00 0.00 0.00 61 1021.9
20260906120902 70 206 15.0 21.0 0.00 0.00 0.00 62 1021.9
20260906120802 70 206 15.0 21.0 0.00 0.00 0.00 61 1021.9
20260906120702 70 205 15.0 21.0 0.00 0.00 0.00 61 1021.9
20260906120602 70 205 15.0 21.0 0.00 0.00 0.00 62 1021.9
20260906120523 70 205 15.0 21.0 0.00 0.00 0.00 62 1021.9
20260906120402 70 205 14.0 21.0 0.00 0.00 0.00 61 1021.9
20260906120302 70 205 14.0 21.0 0.00 0.00 0.00 62 1021.9
20260906120223 70 205 14.0 21.0 0.00 0.00 0.00 62 1021.9
20260906120002 70 206 15.0 19.0 0.00 0.00 0.00 62 1021.9
20260906115902 70 206 14.0 19.0 0.00 0.00 0.00 62 1021.9
20260906115802 70 207 14.0 19.0 0.00 0.00 0.00 63 1021.9
20260906115702 69 207 14.0 19.0 0.00 0.00 0.00 62 1021.9
20260906115603 69 206 14.0 19.0 0.00 0.00 0.00 62 1021.9
20260906115502 69 207 13.0 19.0 0.00 0.00 0.00 63 1021.9
20260906115402 69 207 13.0 19.0 0.00 0.00 0.00 62 1021.9
20260906115306 69 208 13.0 19.0 0.00 0.00 0.00 62 1021.9
20260906115223 69 209 13.0 19.0 0.00 0.00 0.00 62 1021.9
20260906115102 69 209 12.0 18.0 0.00 0.00 0.00 63 1021.9
20260906115002 69 209 12.0 16.0 0.00 0.00 0.00 63 1021.9
20260906114902 69 209 12.0 15.0 0.00 0.00 0.00 64 1021.9
20260906114802 69 208 12.0 15.0 0.00 0.00 0.00 65 1021.9
20260906114702 69 209 12.0 16.0 0.00 0.00 0.00 65 1021.9
20260906114602 69 208 12.0 16.0 0.00 0.00 0.00 66 1021.9
20260906114523 69 208 12.0 16.0 0.00 0.00 0.00 66 1021.9
20260906114402 69 209 12.0 18.0 0.00 0.00 0.00 65 1021.9
20260906114302 69 209 12.0 18.0 0.00 0.00 0.00 66 1021.9
20260906114202 68 208 12.0 18.0 0.00 0.00 0.00 66 1021.9
20260906114102 68 208 12.0 18.0 0.00 0.00 0.00 66 1021.9
20260906114002 68 208 12.0 18.0 0.00 0.00 0.00 66 1021.9
20260906113902 68 207 12.0 18.0 0.00 0.00 0.00 66 1021.9
20260906113802 68 208 12.0 18.0 0.00 0.00 0.00 67 1021.9
20260906113702 68 209 11.0 18.0 0.00 0.00 0.00 67 1021.9
20260906113602 68 211 11.0 18.0 0.00 0.00 0.00 67 1021.9
20260906113502 68 214 10.0 18.0 0.00 0.00 0.00 68 1021.9
20260906113402 68 214 10.0 16.0 0.00 0.00 0.00 67 1021.9
20260906113303 68 214 10.0 16.0 0.00 0.00 0.00 67 1021.9
20260906113202 68 215 10.0 16.0 0.00 0.00 0.00 68 1021.9
20260906113102 68 216 10.0 14.0 0.00 0.00 0.00 69 1021.9
20260906113002 68 215 10.0 13.0 0.00 0.00 0.00 69 1021.9
20260906112902 68 214 10.0 13.0 0.00 0.00 0.00 69 1021.9
20260906112802 68 213 10.0 14.0 0.00 0.00 0.00 69 1021.9
20260906112702 68 210 10.0 15.0 0.00 0.00 0.00 69 1021.9
20260906112602 68 209 10.0 15.0 0.00 0.00 0.00 70 1021.9
20260906112502 67 206 10.0 15.0 0.00 0.00 0.00 70 1021.9
20260906112402 67 205 10.0 15.0 0.00 0.00 0.00 70 1021.9
20260906112306 67 205 10.0 15.0 0.00 0.00 0.00 71 1021.9
20260906112202 67 205 11.0 15.0 0.00 0.00 0.00 70 1021.9
20260906112123 67 205 11.0 15.0 0.00 0.00 0.00 70 1021.9
20260906112002 67 206 11.0 15.0 0.00 0.00 0.00 71 1021.9
20260906111902 67 208 11.0 15.0 0.00 0.00 0.00 71 1021.9
20260906111802 67 209 11.0 15.0 0.00 0.00 0.00 72 1021.9
20260906111702 66 210 11.0 15.0 0.00 0.00 0.00 71 1021.9
20260906111623 66 209 11.0 15.0 0.00 0.00 0.00 71 1021.9
20260906111523 66 208 11.0 18.0 0.00 0.00 0.00 73 1021.9
20260906111403 66 208 11.0 18.0 0.00 0.00 0.00 72 1021.9
20260906111302 66 208 11.0 18.0 0.00 0.00 0.00 73 1021.9
20260906111223 66 208 11.0 18.0 0.00 0.00 0.00 73 1021.9
20260906111123 66 208 11.0 18.0 0.00 0.00 0.00 73 1021.9
20260906111002 66 208 11.0 18.0 0.00 0.00 0.00 75 1021.9
20260906110902 66 208 11.0 18.0 0.00 0.00 0.00 74 1021.9
20260906110802 65 207 11.0 18.0 0.00 0.00 0.00 74 1021.9
20260906110702 65 206 12.0 18.0 0.00 0.00 0.00 74 1021.9
20260906110602 65 205 11.0 18.0 0.00 0.00 0.00 74 1021.9
20260906110504 65 206 11.0 16.0 0.00 0.00 0.00 73 1021.9
20260906110402 65 205 11.0 16.0 0.00 0.00 0.00 73 1021.9
20260906110323 65 205 11.0 16.0 0.00 0.00 0.00 73 1021.9
20260906110202 65 205 11.0 15.0 0.00 0.00 0.00 73 1021.9
20260906110002 65 202 11.0 15.0 0.00 0.00 0.00 73 1021.9
20260906105902 65 202 11.0 15.0 0.00 0.00 0.00 73 1021.9
20260906105802 65 203 11.0 15.0 0.00 0.00 0.00 73 1021.9
20260906105702 65 204 11.0 15.0 0.00 0.00 0.00 73 1021.9
20260906105602 65 205 11.0 15.0 0.00 0.00 0.00 73 1021.9
20260906105523 65 205 11.0 15.0 0.00 0.00 0.00 73 1021.9
20260906105402 65 206 11.0 15.0 0.00 0.00 0.00 73 1021.9
20260906105305 65 206 12.0 15.0 0.00 0.00 0.00 73 1021.9
20260906105202 65 206 12.0 16.0 0.00 0.00 0.00 73 1021.9
20260906105102 65 207 12.0 16.0 0.00 0.00 0.00 73 1021.9
20260906105023 65 208 12.0 16.0 0.00 0.00 0.00 73 1021.9
20260906104902 65 209 12.0 16.0 0.00 0.00 0.00 73 1021.9
20260906104802 65 210 11.0 16.0 0.00 0.00 0.00 72 1021.9
20260906104702 65 211 11.0 16.0 0.00 0.00 0.00 73 1021.9
20260906104602 65 211 11.0 16.0 0.00 0.00 0.00 73 1021.9
20260906104502 65 211 11.0 18.0 0.00 0.00 0.00 73 1021.9
20260906104402 65 211 11.0 18.0 0.00 0.00 0.00 73 1021.9
20260906104302 65 213 11.0 18.0 0.00 0.00 0.00 73 1021.9
20260906104202 65 213 11.0 18.0 0.00 0.00 0.00 73 1021.9
20260906104102 65 215 10.0 18.0 0.00 0.00 0.00 74 1021.9
20260906104002 65 215 10.0 18.0 0.00 0.00 0.00 74 1021.9
20260906103902 65 214 10.0 18.0 0.00 0.00 0.00 74 1021.9
20260906103802 65 214 10.0 18.0 0.00 0.00 0.00 74 1021.9
20260906103702 64 214 10.0 18.0 0.00 0.00 0.00 73 1021.9
20260906103602 64 214 10.0 18.0 0.00 0.00 0.00 73 1021.9
20260906103502 64 215 10.0 18.0 0.00 0.00 0.00 74 1021.9
20260906103402 64 217 10.0 15.0 0.00 0.00 0.00 73 1021.9
20260906103303 64 217 10.0 15.0 0.00 0.00 0.00 73 1021.9
20260906103202 65 219 10.0 15.0 0.00 0.00 0.00 74 1021.9
20260906103123 64 219 10.0 15.0 0.00 0.00 0.00 74 1021.9
20260906103002 64 219 11.0 15.0 0.00 0.00 0.00 74 1021.9
20260906102902 64 220 11.0 15.0 0.00 0.00 0.00 74 1021.9
20260906102802 64 220 11.0 15.0 0.00 0.00 0.00 74 1021.9
20260906102702 64 219 11.0 14.0 0.00 0.00 0.00 74 1021.9
20260906102602 64 219 11.0 14.0 0.00 0.00 0.00 74 1021.9
20260906102502 64 218 11.0 14.0 0.00 0.00 0.00 74 1021.9
20260906102402 64 216 11.0 15.0 0.00 0.00 0.00 74 1021.9
20260906102305 64 214 11.0 18.0 0.00 0.00 0.00 73 1021.9
20260906102202 64 212 11.0 18.0 0.00 0.00 0.00 74 1021.9
20260906102102 64 211 11.0 18.0 0.00 0.00 0.00 74 1021.9
20260906102002 64 210 11.0 18.0 0.00 0.00 0.00 75 1021.9
20260906101902 64 208 11.0 18.0 0.00 0.00 0.00 74 1021.9
20260906101802 64 208 11.0 18.0 0.00 0.00 0.00 75 1021.9
20260906101702 64 208 11.0 18.0 0.00 0.00 0.00 75 1021.9
20260906101602 64 208 11.0 18.0 0.00 0.00 0.00 74 1021.9
20260906101502 63 208 11.0 18.0 0.00 0.00 0.00 74 1021.9
20260906101402 63 208 10.0 18.0 0.00 0.00 0.00 75 1021.9
20260906101302 63 208 10.0 13.0 0.00 0.00 0.00 75 1021.9
20260906101202 63 208 10.0 13.0 0.00 0.00 0.00 76 1021.9
20260906101123 63 208 10.0 13.0 0.00 0.00 0.00 76 1021.9
20260906101003 63 208 9.0 13.0 0.00 0.00 0.00 76 1021.9
20260906100902 63 208 9.0 13.0 0.00 0.00 0.00 75 1021.9
20260906100802 63 208 9.0 13.0 0.00 0.00 0.00 76 1021.9
20260906100702 63 208 9.0 12.0 0.00 0.00 0.00 76 1021.9
20260906100602 63 208 9.0 12.0 0.00 0.00 0.00 76 1021.9
20260906100502 63 207 9.0 13.0 0.00 0.00 0.00 76 1021.9
20260906100402 63 206 9.0 13.0 0.00 0.00 0.00 76 1021.9
20260906100302 63 205 9.0 13.0 0.00 0.00 0.00 77 1021.9
20260906100203 63 205 9.0 13.0 0.00 0.00 0.00 77 1021.9
20260906100123 63 204 9.0 13.0 0.00 0.00 0.00 77 1021.9
20260906100024 63 205 9.0 14.0 0.00 0.00 0.00 76 1021.9
20260906095903 63 205 10.0 14.0 0.00 0.00 0.00 76 1021.9
20260906095802 63 204 10.0 14.0 0.00 0.00 0.00 77 1021.9
20260906095723 63 205 10.0 14.0 0.00 0.00 0.00 77 1021.9
20260906095602 63 205 10.0 14.0 0.00 0.00 0.00 77 1021.9
20260906095502 63 205 10.0 14.0 0.00 0.00 0.00 77 1021.9
20260906095402 63 206 10.0 14.0 0.00 0.00 0.00 77 1021.9
20260906095305 63 206 11.0 14.0 0.00 0.00 0.00 77 1021.9
20260906095223 63 207 11.0 15.0 0.00 0.00 0.00 77 1021.9
20260906095102 63 208 11.0 15.0 0.00 0.00 0.00 76 1021.9
20260906095002 63 207 12.0 15.0 0.00 0.00 0.00 77 1021.9
20260906094903 63 208 12.0 16.0 0.00 0.00 0.00 76 1021.9
20260906094803 63 208 12.0 16.0 0.00 0.00 0.00 77 1021.9
20260906094702 63 207 12.0 16.0 0.00 0.00 0.00 77 1021.9
20260906094602 63 206 12.0 16.0 0.00 0.00 0.00 77 1021.9
20260906094502 63 207 13.0 16.0 0.00 0.00 0.00 77 1021.9
20260906094423 63 207 13.0 16.0 0.00 0.00 0.00 77 1021.9
20260906094302 63 207 13.0 16.0 0.00 0.00 0.00 77 1021.9
20260906094202 63 207 12.0 16.0 0.00 0.00 0.00 77 1021.9
20260906094123 63 206 12.0 16.0 0.00 0.00 0.00 77 1021.9
20260906094002 63 206 12.0 16.0 0.00 0.00 0.00 77 1021.9
20260906093902 63 205 11.0 16.0 0.00 0.00 0.00 78 1021.9
20260906093803 62 205 11.0 16.0 0.00 0.00 0.00 78 1021.9
20260906093702 62 207 11.0 16.0 0.00 0.00 0.00 79 1021.9
20260906093602 62 209 11.0 16.0 0.00 0.00 0.00 79 1021.9
20260906093523 62 207 11.0 16.0 0.00 0.00 0.00 79 1021.9
20260906081802 61 200 9.0 13.0 0.00 0.00 0.00 77
20260906081702 61 200 9.0 13.0 0.00 0.00 0.00 77
20260906081602 61 199 9.0 13.0 0.00 0.00 0.00 77
20260906081502 61 199 9.0 13.0 0.00 0.00 0.00 78
20260906081402 61 200 9.0 13.0 0.00 0.00 0.00 78
20260906081302 61 199 9.0 13.0 0.00 0.00 0.00 78
20260906081202 61 199 9.0 13.0 0.00 0.00 0.00 78
20260906081102 61 198 9.0 13.0 0.00 0.00 0.00 78
20260906081002 61 198 9.0 13.0 0.00 0.00 0.00 78
20260906080902 61 198 9.0 13.0 0.00 0.00 0.00 79
20260906080802 61 199 10.0 13.0 0.00 0.00 0.00 79
20260906080723 61 199 10.0 13.0 0.00 0.00 0.00 79
20260906080623 61 199 9.0 13.0 0.00 0.00 0.00 79
20260906080502 61 199 10.0 13.0 0.00 0.00 0.00 79
20260906080402 61 198 10.0 13.0 0.00 0.00 0.00 79
20260906080302 61 199 10.0 13.0 0.00 0.00 0.00 79
20260906080202 61 199 10.0 13.0 0.00 0.00 0.00 80
20260906080002 60 199 10.0 13.0 0.00 0.00 0.00 80
20260906075923 60 197 10.0 14.0 0.00 0.00 0.00 80
20260906075802 60 196 9.0 14.0 0.00 0.00 0.00 80
20260906075702 60 195 9.0 14.0 0.00 0.00 0.00 81
20260906075602 60 195 9.0 14.0 0.00 0.00 0.00 81
20260906075502 60 195 9.0 14.0 0.00 0.00 0.00 81
20260906075402 60 194 8.0 14.0 0.00 0.00 0.00 81
20260906075306 60 193 8.0 14.0 0.00 0.00 0.00 82
20260906075202 60 193 8.0 14.0 0.00 0.00 0.00 82
20260906075102 60 192 8.0 14.0 0.00 0.00 0.00 82
20260906075002 59 191 7.0 14.0 0.00 0.00 0.00 83
20260906074902 59 191 7.0 13.0 0.00 0.00 0.00 83
20260906074802 59 191 7.0 13.0 0.00 0.00 0.00 84
20260906074723 59 190 7.0 11.0 0.00 0.00 0.00 84
20260906074602 59 189 6.0 10.0 0.00 0.00 0.00 85
20260906074523 59 188 6.0 10.0 0.00 0.00 0.00 85
20260906074402 58 186 5.0 10.0 0.00 0.00 0.00 85
20260906074302 58 185 4.0 10.0 0.00 0.00 0.00 86
20260906074202 58 183 4.0 9.0 0.00 0.00 0.00 86
20260906074102 58 182 4.0 9.0 0.00 0.00 0.00 86
20260906074002 58 182 4.0 9.0 0.00 0.00 0.00 86
20260906073902 58 181 3.0 9.0 0.00 0.00 0.00 86
20260906073823 58 179 3.0 8.0 0.00 0.00 0.00 86
20260906073702 57 178 3.0 8.0 0.00 0.00 0.00 86
20260906073602 57 176 3.0 8.0 0.00 0.00 0.00 86
20260906073502 57 177 3.0 8.0 0.00 0.00 0.00 86
20260906073402 57 177 3.0 8.0 0.00 0.00 0.00 86
20260906073323 57 177 3.0 8.0 0.00 0.00 0.00 86
20260906073202 57 175 3.0 8.0 0.00 0.00 0.00 86
20260906073102 57 175 3.0 8.0 0.00 0.00 0.00 85
20260906073003 57 175 3.0 8.0 0.00 0.00 0.00 85
20260906072902 57 173 3.0 8.0 0.00 0.00 0.00 85
20260906072802 57 173 3.0 6.0 0.00 0.00 0.00 85
20260906072702 57 173 3.0 6.0 0.00 0.00 0.00 85
20260906072602 57 174 3.0 7.0 0.00 0.00 0.00 85
20260906072503 57 175 4.0 7.0 0.00 0.00 0.00 85
20260906072423 57 176 4.0 7.0 0.00 0.00 0.00 85
20260906072305 57 178 4.0 9.0 0.00 0.00 0.00 85
20260906072202 57 180 5.0 10.0 0.00 0.00 0.00 85
20260906072102 57 182 5.0 10.0 0.00 0.00 0.00 85
20260906072002 57 183 6.0 10.0 0.00 0.00 0.00 85
20260906071902 57 184 6.0 10.0 0.00 0.00 0.00 85
20260906071802 57 185 6.0 10.0 0.00 0.00 0.00 85
20260906071702 57 185 6.0 10.0 0.00 0.00 0.00 85
20260906071602 57 186 6.0 10.0 0.00 0.00 0.00 85
20260906071502 57 185 6.0 10.0 0.00 0.00 0.00 85
20260906071402 57 185 6.0 10.0 0.00 0.00 0.00 85
20260906071302 57 185 6.0 10.0 0.00 0.00 0.00 85
20260906071202 57 184 6.0 9.0 0.00 0.00 0.00 86
20260906071123 57 183 6.0 9.0 0.00 0.00 0.00 86
20260906071002 57 182 6.0 9.0 0.00 0.00 0.00 86
20260906070902 57 182 5.0 9.0 0.00 0.00 0.00 86
20260906070802 57 181 5.0 9.0 0.00 0.00 0.00 86
20260906070702 56 180 6.0 9.0 0.00 0.00 0.00 86
20260906070602 56 180 6.0 9.0 0.00 0.00 0.00 86
20260906070502 56 181 6.0 10.0 0.00 0.00 0.00 86
20260906070402 56 181 6.0 10.0 0.00 0.00 0.00 86
20260906070302 56 181 6.0 10.0 0.00 0.00 0.00 86
20260906070202 56 182 6.0 10.0 0.00 0.00 0.00 86
20260906070002 56 183 7.0 10.0 0.00 0.00 0.00 86
20260906065902 56 183 7.0 10.0 0.00 0.00 0.00 86
20260906065802 56 184 7.0 10.0 0.00 0.00 0.00 87
20260906065702 56 185 7.0 10.0 0.00 0.00 0.00 87
20260906065602 56 186 7.0 10.0 0.00 0.00 0.00 87
20260906065502 56 186 7.0 10.0 0.00 0.00 0.00 87
20260906065402 56 187 7.0 10.0 0.00 0.00 0.00 87
20260906065305 56 187 7.0 10.0 0.00 0.00 0.00 87
20260906065202 56 187 7.0 10.0 0.00 0.00 0.00 87
20260906065102 56 188 7.0 10.0 0.00 0.00 0.00 87
20260906065023 56 188 7.0 10.0 0.00 0.00 0.00 87
20260906064902 56 188 7.0 10.0 0.00 0.00 0.00 88
20260906064802 56 187 7.0 9.0 0.00 0.00 0.00 88
20260906064702 56 187 7.0 9.0 0.00 0.00 0.00 88
20260906064602 56 186 7.0 9.0 0.00 0.00 0.00 87
20260906064523 56 186 7.0 9.0 0.00 0.00 0.00 87
20260906064402 56 186 6.0 9.0 0.00 0.00 0.00 88
20260906064302 55 186 6.0 9.0 0.00 0.00 0.00 88
20260906064202 55 187 6.0 9.0 0.00 0.00 0.00 88
20260906064102 55 187 6.0 9.0 0.00 0.00 0.00 88
20260906064002 55 187 6.0 9.0 0.00 0.00 0.00 88
20260906063923 55 188 6.0 9.0 0.00 0.00 0.00 88
20260906063802 55 189 6.0 8.0 0.00 0.00 0.00 88
20260906063703 55 189 6.0 8.0 0.00 0.00 0.00 88
20260906063602 55 190 6.0 8.0 0.00 0.00 0.00 88
20260906063503 55 190 6.0 8.0 0.00 0.00 0.00 88
20260906063402 55 190 6.0 8.0 0.00 0.00 0.00 88
20260906063324 55 190 6.0 8.0 0.00 0.00 0.00 88
20260906063202 55 190 5.0 8.0 0.00 0.00 0.00 89
20260906063102 55 190 5.0 8.0 0.00 0.00 0.00 89
20260906063023 55 190 5.0 8.0 0.00 0.00 0.00 89
20260906062902 55 192 6.0 9.0 0.00 0.00 0.00 89
20260906062823 55 193 6.0 9.0 0.00 0.00 0.00 89
20260906062702 55 194 6.0 9.0 0.00 0.00 0.00 89
20260906062602 54 195 6.0 9.0 0.00 0.00 0.00 89
20260906062502 54 195 6.0 9.0 0.00 0.00 0.00 89
20260906062423 54 195 6.0 9.0 0.00 0.00 0.00 89
20260906062305 54 194 6.0 9.0 0.00 0.00 0.00 89
20260906062202 54 193 6.0 9.0 0.00 0.00 0.00 89
20260906062102 54 192 6.0 9.0 0.00 0.00 0.00 89
20260906062002 54 190 6.0 9.0 0.00 0.00 0.00 89
20260906061902 54 186 5.0 8.0 0.00 0.00 0.00 89
20260906061802 54 182 5.0 8.0 0.00 0.00 0.00 89
20260906061702 54 177 5.0 8.0 0.00 0.00 0.00 89
20260906061603 54 173 4.0 8.0 0.00 0.00 0.00 89
20260906061523 53 171 4.0 8.0 0.00 0.00 0.00 89
20260906061402 53 165 4.0 7.0 0.00 0.00 0.00 88
20260906061323 53 162 4.0 7.0 0.00 0.00 0.00 88
20260906061202 53 156 3.0 6.0 0.00 0.00 0.00 88
20260906061123 53 153 3.0 6.0 0.00 0.00 0.00 88
20260906061002 53 150 3.0 5.0 0.00 0.00 0.00 88
20260906060902 53 151 3.0 5.0 0.00 0.00 0.00 88
20260906060802 53 151 3.0 5.0 0.00 0.00 0.00 88
20260906060702 53 151 3.0 5.0 0.00 0.00 0.00 87
20260906060602 53 152 3.0 5.0 0.00 0.00 0.00 88
20260906060523 53 152 3.0 5.0 0.00 0.00 0.00 88
20260906060402 53 152 3.0 5.0 0.00 0.00 0.00 88
20260906060302 53 152 3.0 5.0 0.00 0.00 0.00 88
20260906060202 53 153 4.0 5.0 0.00 0.00 0.00 88
20260906060024 53 153 3.0 6.0 0.00 0.00 0.00 88
20260906055902 53 151 3.0 6.0 0.00 0.00 0.00 87
20260906055803 53 148 3.0 6.0 0.00 0.00 0.00 87
20260906055702 53 146 3.0 6.0 0.00 0.00 0.00 87
20260906055602 53 144 3.0 6.0 0.00 0.00 0.00 87
20260906055502 53 140 3.0 6.0 0.00 0.00 0.00 87
20260906055402 53 135 4.0 6.0 0.00 0.00 0.00 87
20260906055323 53 137 4.0 6.0 0.00 0.00 0.00 87
20260906055223 53 142 4.0 7.0 0.00 0.00 0.00 87
20260906055102 53 149 4.0 7.0 0.00 0.00 0.00 86
20260906055003 54 156 4.0 8.0 0.00 0.00 0.00 86
20260906054902 54 164 5.0 8.0 0.00 0.00 0.00 87
20260906054802 54 172 5.0 8.0 0.00 0.00 0.00 87
20260906054702 54 178 5.0 8.0 0.00 0.00 0.00 87
20260906054602 54 183 6.0 8.0 0.00 0.00 0.00 88
20260906054502 54 189 6.0 9.0 0.00 0.00 0.00 88
20260906054402 54 196 6.0 9.0 0.00 0.00 0.00 88
20260906054302 54 198 6.0 9.0 0.00 0.00 0.00 88
20260906054202 54 200 7.0 9.0 0.00 0.00 0.00 88
20260906054102 54 201 7.0 9.0 0.00 0.00 0.00 88
20260906054002 54 202 7.0 9.0 0.00 0.00 0.00 88
20260906053902 54 203 7.0 9.0 0.00 0.00 0.00 88
20260906053802 54 203 7.0 9.0 0.00 0.00 0.00 88
20260906053702 54 203 7.0 9.0 0.00 0.00 0.00 88
20260906053602 54 202 7.0 9.0 0.00 0.00 0.00 88
20260906053502 54 201 7.0 8.0 0.00 0.00 0.00 88
20260906053402 54 200 7.0 8.0 0.00 0.00 0.00 88
20260906053302 54 199 7.0 8.0 0.00 0.00 0.00 88
20260906053224 54 199 7.0 8.0 0.00 0.00 0.00 88
20260906053102 54 198 7.0 8.0 0.00 0.00 0.00 88
20260906053002 54 198 6.0 8.0 0.00 0.00 0.00 88
20260906052923 54 197 6.0 8.0 0.00 0.00 0.00 88
20260906052802 54 197 6.0 8.0 0.00 0.00 0.00 88
20260906052723 54 196 6.0 8.0 0.00 0.00 0.00 88
20260906052602 54 196 6.0 8.0 0.00 0.00 0.00 88
20260906052502 54 196 6.0 8.0 0.00 0.00 0.00 88
20260906052402 54 196 6.0 8.0 0.00 0.00 0.00 88
20260906052323 54 195 6.0 8.0 0.00 0.00 0.00 88
20260906052202 54 195 5.0 8.0 0.00 0.00 0.00 88
20260906052102 54 195 5.0 7.0 0.00 0.00 0.00 88
20260906052023 54 195 5.0 7.0 0.00 0.00 0.00 88
20260906051902 53 195 5.0 7.0 0.00 0.00 0.00 88
20260906051823 53 195 5.0 7.0 0.00 0.00 0.00 88
20260906051702 53 195 5.0 7.0 0.00 0.00 0.00 88
20260906051603 53 195 5.0 7.0 0.00 0.00 0.00 88
20260906051502 53 195 5.0 7.0 0.00 0.00 0.00 88
20260906051402 53 195 5.0 7.0 0.00 0.00 0.00 88
20260906051302 53 194 5.0 7.0 0.00 0.00 0.00 88
20260906051203 53 193 5.0 7.0 0.00 0.00 0.00 88
20260906051103 53 193 5.0 7.0 0.00 0.00 0.00 88
20260906051023 53 192 5.0 7.0 0.00 0.00 0.00 88
20260906050902 53 190 4.0 7.0 0.00 0.00 0.00 88
20260906050802 53 189 4.0 7.0 0.00 0.00 0.00 88
20260906050702 53 187 3.0 6.0 0.00 0.00 0.00 88
20260906050602 53 186 3.0 6.0 0.00 0.00 0.00 88
20260906050523 53 185 3.0 6.0 0.00 0.00 0.00 88
20260906050402 53 184 3.0 5.0 0.00 0.00 0.00 88
20260906050323 53 183 3.0 5.0 0.00 0.00 0.00 88
20260906050202 53 183 3.0 5.0 0.00 0.00 0.00 87
20260906050123 53 183 3.0 5.0 0.00 0.00 0.00 87
20260906050002 53 183 3.0 6.0 0.00 0.00 0.00 87
20260906045902 53 183 3.0 6.0 0.00 0.00 0.00 87
20260906045802 53 182 4.0 6.0 0.00 0.00 0.00 88
20260906045702 53 181 4.0 6.0 0.00 0.00 0.00 88
20260906045602 53 180 4.0 6.0 0.00 0.00 0.00 88
20260906045502 53 177 4.0 6.0 0.00 0.00 0.00 88
20260906045402 53 174 4.0 6.0 0.00 0.00 0.00 88
20260906045323 53 173 4.0 6.0 0.00 0.00 0.00 88
20260906045202 53 170 3.0 6.0 0.00 0.00 0.00 88
20260906045123 53 168 3.0 6.0 0.00 0.00 0.00 88
20260906045002 53 164 3.0 6.0 0.00 0.00 0.00 87
20260906044902 53 160 3.0 6.0 0.00 0.00 0.00 87
20260906044823 53 158 3.0 5.0 0.00 0.00 0.00 87
20260906044723 53 153 2.0 5.0 0.00 0.00 0.00 87
20260906044623 53 150 2.0 5.0 0.00 0.00 0.00 87
20260906044502 53 148 2.0 4.0 0.00 0.00 0.00 87
20260906044402 53 148 1.0 4.0 0.00 0.00 0.00 87
20260906044302 52 148 1.0 4.0 0.00 0.00 0.00 87
20260906044223 52 148 1.0 4.0 0.00 0.00 0.00 87
20260906044102 53 148 1.0 4.0 0.00 0.00 0.00 86
20260906044002 53 148 1.0 4.0 0.00 0.00 0.00 86
20260906043902 53 148 1.0 4.0 0.00 0.00 0.00 86
20260906043826 53 148 1.0 4.0 0.00 0.00 0.00 86
20260906043702 53 148 0.0 3.0 0.00 0.00 0.00 86
20260906043602 53 148 0.0 3.0 0.00 0.00 0.00 86
20260906043502 53 148 0.0 3.0 0.00 0.00 0.00 86
20260906043423 53 148 0.0 3.0 0.00 0.00 0.00 86
20260906043302 53 148 1.0 3.0 0.00 0.00 0.00 86
20260906043202 53 148 1.0 4.0 0.00 0.00 0.00 86
20260906043102 53 148 1.0 4.0 0.00 0.00 0.00 86
20260906043002 53 148 1.0 4.0 0.00 0.00 0.00 86
20260906042902 53 148 1.0 5.0 0.00 0.00 0.00 86
20260906042802 53 148 1.0 5.0 0.00 0.00 0.00 86
20260906042702 53 148 1.0 5.0 0.00 0.00 0.00 86
20260906042602 53 148 2.0 5.0 0.00 0.00 0.00 86
20260906042502 53 148 2.0 5.0 0.00 0.00 0.00 85
20260906042402 53 148 2.0 5.0 0.00 0.00 0.00 85
20260906042306 53 149 2.0 5.0 0.00 0.00 0.00 85
20260906042202 53 149 2.0 5.0 0.00 0.00 0.00 85
20260906042102 53 149 2.0 5.0 0.00 0.00 0.00 85
20260906042002 53 149 2.0 5.0 0.00 0.00 0.00 85
20260906041903 53 150 3.0 6.0 0.00 0.00 0.00 85
20260906041802 53 150 3.0 6.0 0.00 0.00 0.00 85
20260906041702 53 149 3.0 6.0 0.00 0.00 0.00 85
20260906041603 53 148 3.0 6.0 0.00 0.00 0.00 85
20260906041523 53 147 3.0 6.0 0.00 0.00 0.00 85
20260906041402 53 145 3.0 6.0 0.00 0.00 0.00 85
20260906041302 53 144 3.0 6.0 0.00 0.00 0.00 85
20260906041202 53 143 3.0 6.0 0.00 0.00 0.00 85
20260906041102 53 143 3.0 6.0 0.00 0.00 0.00 85
20260906041023 54 143 3.0 6.0 0.00 0.00 0.00 85
20260906040902 53 142 3.0 6.0 0.00 0.00 0.00 85
20260906040802 53 141 3.0 6.0 0.00 0.00 0.00 85
20260906040723 54 141 3.0 6.0 0.00 0.00 0.00 85
20260906040602 54 142 3.0 6.0 0.00 0.00 0.00 85
20260906040523 54 143 3.0 6.0 0.00 0.00 0.00 85
20260906040402 54 145 3.0 8.0 0.00 0.00 0.00 85
20260906040302 54 146 4.0 8.0 0.00 0.00 0.00 85
20260906040202 54 147 4.0 8.0 0.00 0.00 0.00 85
20260906040003 54 149 4.0 8.0 0.00 0.00 0.00 85
20260906035902 54 149 4.0 8.0 0.00 0.00 0.00 85
20260906035802 54 150 4.0 8.0 0.00 0.00 0.00 85
20260906035702 54 151 4.0 8.0 0.00 0.00 0.00 85
20260906035602 54 151 4.0 8.0 0.00 0.00 0.00 85
20260906035502 54 151 4.0 8.0 0.00 0.00 0.00 85
20260906035423 54 151 4.0 7.0 0.00 0.00 0.00 85
20260906035323 54 151 4.0 7.0 0.00 0.00 0.00 85
20260906035202 53 151 4.0 7.0 0.00 0.00 0.00 85
20260906035102 53 151 4.0 7.0 0.00 0.00 0.00 85
20260906035023 53 151 4.0 7.0 0.00 0.00 0.00 85
20260906034923 53 150 4.0 7.0 0.00 0.00 0.00 85
20260906034823 53 151 4.0 6.0 0.00 0.00 0.00 85
20260906034702 53 151 4.0 6.0 0.00 0.00 0.00 85
20260906034602 53 151 4.0 6.0 0.00 0.00 0.00 85
20260906034502 53 152 4.0 9.0 0.00 0.00 0.00 85
20260906034402 53 152 4.0 9.0 0.00 0.00 0.00 85
20260906034302 53 151 4.0 9.0 0.00 0.00 0.00 85
20260906034202 53 152 4.0 9.0 0.00 0.00 0.00 85
20260906034102 53 153 4.0 9.0 0.00 0.00 0.00 86
20260906034023 53 153 4.0 9.0 0.00 0.00 0.00 86
20260906033902 53 154 4.0 9.0 0.00 0.00 0.00 86
20260906033802 53 155 4.0 9.0 0.00 0.00 0.00 86
20260906033703 53 156 4.0 9.0 0.00 0.00 0.00 86
20260906033623 53 156 4.0 9.0 0.00 0.00 0.00 86
20260906033523 53 156 4.0 7.0 0.00 0.00 0.00 86
20260906033403 53 157 4.0 7.0 0.00 0.00 0.00 86
20260906033323 53 159 4.0 7.0 0.00 0.00 0.00 86
20260906033223 53 160 4.0 6.0 0.00 0.00 0.00 86
20260906033102 53 160 4.0 7.0 0.00 0.00 0.00 87
20260906033002 53 159 4.0 7.0 0.00 0.00 0.00 87
20260906032904 53 159 4.0 7.0 0.00 0.00 0.00 87
20260906032802 53 158 4.0 7.0 0.00 0.00 0.00 87
20260906032723 53 158 4.0 7.0 0.00 0.00 0.00 87
20260906032602 53 158 4.0 7.0 0.00 0.00 0.00 87
20260906032504 53 158 4.0 7.0 0.00 0.00 0.00 88
20260906032402 53 158 4.0 7.0 0.00 0.00 0.00 88
20260906032323 53 157 4.0 7.0 0.00 0.00 0.00 88
20260906032202 53 157 3.0 7.0 0.00 0.00 0.00 88
20260906032102 53 157 3.0 6.0 0.00 0.00 0.00 88
20260906032002 53 157 3.0 6.0 0.00 0.00 0.00 88
20260906031902 53 156 3.0 6.0 0.00 0.00 0.00 88
20260906031802 53 156 3.0 6.0 0.00 0.00 0.00 88
20260906031702 53 156 3.0 6.0 0.00 0.00 0.00 89
20260906031602 53 156 4.0 6.0 0.00 0.00 0.00 89
20260906031502 53 157 4.0 6.0 0.00 0.00 0.00 89
20260906031402 53 157 4.0 6.0 0.00 0.00 0.00 89
20260906031302 53 155 3.0 6.0 0.00 0.00 0.00 89
20260906031202 52 154 3.0 6.0 0.00 0.00 0.00 89
20260906031102 52 154 3.0 6.0 0.00 0.00 0.00 89
20260906031002 52 154 3.0 6.0 0.00 0.00 0.00 89
20260906030902 52 154 3.0 6.0 0.00 0.00 0.00 89
20260906030802 52 154 3.0 6.0 0.00 0.00 0.00 89
20260906030702 52 154 3.0 6.0 0.00 0.00 0.00 89
20260906030623 52 154 3.0 6.0 0.00 0.00 0.00 89
20260906030502 52 152 3.0 6.0 0.00 0.00 0.00 89
20260906030402 52 152 3.0 6.0 0.00 0.00 0.00 90
20260906030302 52 153 3.0 5.0 0.00 0.00 0.00 90
20260906030202 52 152 3.0 5.0 0.00 0.00 0.00 90
20260906030123 52 152 3.0 5.0 0.00 0.00 0.00 90
20260906030002 52 151 3.0 5.0 0.00 0.00 0.00 90
20260906025902 52 151 3.0 5.0 0.00 0.00 0.00 90
20260906025802 52 151 3.0 5.0 0.00 0.00 0.00 90
20260906025723 52 151 3.0 6.0 0.00 0.00 0.00 90
20260906025602 52 152 3.0 6.0 0.00 0.00 0.00 90
20260906025502 52 152 3.0 6.0 0.00 0.00 0.00 90
20260906025402 52 152 4.0 6.0 0.00 0.00 0.00 90
20260906025306 52 153 4.0 7.0 0.00 0.00 0.00 90
20260906025203 52 153 4.0 7.0 0.00 0.00 0.00 91
20260906025102 52 152 4.0 7.0 0.00 0.00 0.00 91
20260906025023 52 153 4.0 7.0 0.00 0.00 0.00 91
20260906024902 52 153 3.0 7.0 0.00 0.00 0.00 91
20260906024802 52 153 3.0 7.0 0.00 0.00 0.00 91
20260906024702 52 152 3.0 7.0 0.00 0.00 0.00 91
20260906024623 52 152 3.0 7.0 0.00 0.00 0.00 91
20260906024502 52 151 3.0 7.0 0.00 0.00 0.00 91
20260906024402 52 150 3.0 7.0 0.00 0.00 0.00 91
20260906024302 51 150 2.0 6.0 0.00 0.00 0.00 90
20260906024202 51 149 2.0 6.0 0.00 0.00 0.00 90
20260906024102 51 149 2.0 5.0 0.00 0.00 0.00 90
20260906024002 51 146 2.0 5.0 0.00 0.00 0.00 90
20260906023923 51 146 2.0 5.0 0.00 0.00 0.00 90
20260906023823 51 145 2.0 5.0 0.00 0.00 0.00 90
20260906023703 51 144 2.0 5.0 0.00 0.00 0.00 90
20260906023602 51 143 1.0 5.0 0.00 0.00 0.00 90
20260906023523 51 143 1.0 5.0 0.00 0.00 0.00 90
20260906023402 51 143 1.0 4.0 0.00 0.00 0.00 90
20260906023302 51 143 1.0 4.0 0.00 0.00 0.00 90
20260906023202 51 143 1.0 4.0 0.00 0.00 0.00 90
20260906023102 51 142 1.0 4.0 0.00 0.00 0.00 90
20260906023002 51 142 1.0 4.0 0.00 0.00 0.00 90
20260906022902 51 142 1.0 4.0 0.00 0.00 0.00 90
20260906022802 51 142 1.0 4.0 0.00 0.00 0.00 90
20260906022723 51 142 1.0 4.0 0.00 0.00 0.00 90
20260906022602 51 142 1.0 3.0 0.00 0.00 0.00 90
20260906022502 51 142 1.0 4.0 0.00 0.00 0.00 90
20260906022423 51 142 1.0 4.0 0.00 0.00 0.00 90
20260906022306 51 142 1.0 4.0 0.00 0.00 0.00 89
20260906022202 51 142 1.0 4.0 0.00 0.00 0.00 89
20260906022102 51 142 1.0 4.0 0.00 0.00 0.00 89
20260906022023 51 142 1.0 4.0 0.00 0.00 0.00 89
20260906021902 51 142 1.0 4.0 0.00 0.00 0.00 89
20260906021802 51 142 1.0 4.0 0.00 0.00 0.00 89
20260906021702 51 142 1.0 4.0 0.00 0.00 0.00 89
20260906021623 51 142 1.0 4.0 0.00 0.00 0.00 89
20260906021502 51 142 1.0 4.0 0.00 0.00 0.00 89
20260906021402 51 142 1.0 4.0 0.00 0.00 0.00 89
20260906021302 51 142 1.0 4.0 0.00 0.00 0.00 89
20260906021202 51 142 1.0 4.0 0.00 0.00 0.00 89
20260906021102 52 142 1.0 4.0 0.00 0.00 0.00 89
20260906021002 52 142 1.0 4.0 0.00 0.00 0.00 89
20260906020902 52 142 1.0 4.0 0.00 0.00 0.00 89
20260906020802 51 142 1.0 4.0 0.00 0.00 0.00 89
20260906020723 51 142 1.0 4.0 0.00 0.00 0.00 89
20260906020602 51 142 1.0 4.0 0.00 0.00 0.00 89
20260906020502 51 142 1.0 4.0 0.00 0.00 0.00 89
20260906020402 51 142 1.0 4.0 0.00 0.00 0.00 89
20260906020302 51 142 1.0 4.0 0.00 0.00 0.00 89
20260906020202 51 142 1.0 4.0 0.00 0.00 0.00 89
20260906020002 51 142 1.0 4.0 0.00 0.00 0.00 89
20260906015902 51 142 1.0 4.0 0.00 0.00 0.00 89
20260906015803 52 142 1.0 4.0 0.00 0.00 0.00 89
20260906015703 52 142 1.0 4.0 0.00 0.00 0.00 88
20260906015602 52 142 1.0 4.0 0.00 0.00 0.00 88
20260906015502 52 142 1.0 4.0 0.00 0.00 0.00 88
20260906015402 52 142 1.0 4.0 0.00 0.00 0.00 88
20260906015323 52 142 1.0 4.0 0.00 0.00 0.00 88
20260906015202 52 142 2.0 4.0 0.00 0.00 0.00 88
20260906015102 52 142 2.0 4.0 0.00 0.00 0.00 88
20260906015002 52 142 2.0 4.0 0.00 0.00 0.00 88
20260906014903 52 142 2.0 4.0 0.00 0.00 0.00 88
20260906014802 52 142 2.0 4.0 0.00 0.00 0.00 88
20260906014702 52 142 2.0 4.0 0.00 0.00 0.00 88
20260906014623 52 142 2.0 4.0 0.00 0.00 0.00 88
20260906014502 52 142 2.0 5.0 0.00 0.00 0.00 88
20260906014402 52 142 2.0 5.0 0.00 0.00 0.00 88
20260906014302 52 142 2.0 5.0 0.00 0.00 0.00 88
20260906014202 52 142 2.0 5.0 0.00 0.00 0.00 88
20260906014123 52 142 2.0 5.0 0.00 0.00 0.00 88
20260906014002 52 142 2.0 5.0 0.00 0.00 0.00 88
20260906013902 52 142 2.0 5.0 0.00 0.00 0.00 87
20260906013802 52 142 2.0 5.0 0.00 0.00 0.00 87
20260906013702 52 142 2.0 5.0 0.00 0.00 0.00 87
20260906013602 52 142 2.0 5.0 0.00 0.00 0.00 87
20260906013502 52 142 2.0 4.0 0.00 0.00 0.00 87
20260906013402 52 142 2.0 4.0 0.00 0.00 0.00 87
20260906013323 52 142 2.0 4.0 0.00 0.00 0.00 87
20260906013223 52 142 2.0 4.0 0.00 0.00 0.00 87
20260906013102 52 142 2.0 4.0 0.00 0.00 0.00 87
20260906013002 52 142 2.0 5.0 0.00 0.00 0.00 87
20260906012902 52 142 2.0 5.0 0.00 0.00 0.00 87
20260906012802 52 142 2.0 5.0 0.00 0.00 0.00 87
20260906012702 52 142 2.0 5.0 0.00 0.00 0.00 87
20260906012602 52 142 2.0 5.0 0.00 0.00 0.00 87
20260906012502 52 142 2.0 5.0 0.00 0.00 0.00 87
20260906012402 52 142 2.0 5.0 0.00 0.00 0.00 86
20260906012306 52 142 2.0 5.0 0.00 0.00 0.00 86
20260906012202 52 142 2.0 5.0 0.00 0.00 0.00 86
20260906012102 52 142 2.0 5.0 0.00 0.00 0.00 86
20260906012002 52 142 2.0 5.0 0.00 0.00 0.00 86
20260906011902 52 142 2.0 4.0 0.00 0.00 0.00 86
20260906011802 52 142 2.0 4.0 0.00 0.00 0.00 86
20260906011702 52 142 2.0 5.0 0.00 0.00 0.00 86
20260906011602 52 142 2.0 5.0 0.00 0.00 0.00 86
20260906011502 52 142 2.0 5.0 0.00 0.00 0.00 86
20260906011402 52 141 3.0 5.0 0.00 0.00 0.00 86
20260906011302 52 140 3.0 5.0 0.00 0.00 0.00 86
20260906011202 52 139 3.0 5.0 0.00 0.00 0.00 86
20260906011102 52 138 3.0 5.0 0.00 0.00 0.00 86
20260906011004 52 137 3.0 5.0 0.00 0.00 0.00 86
20260906010902 52 137 3.0 5.0 0.00 0.00 0.00 85
20260906010802 52 137 3.0 5.0 0.00 0.00 0.00 85
20260906010703 52 136 2.0 5.0 0.00 0.00 0.00 85
20260906010602 52 135 2.0 5.0 0.00 0.00 0.00 85
20260906010502 52 133 2.0 5.0 0.00 0.00 0.00 85
20260906010402 52 132 1.0 4.0 0.00 0.00 0.00 85
20260906010323 53 132 1.0 4.0 0.00 0.00 0.00 85
20260906010202 53 131 1.0 4.0 0.00 0.00 0.00 84
20260906010002 53 131 1.0 2.0 0.00 0.00 0.00 84
20260906005902 53 131 1.0 2.0 0.00 0.00 0.00 84
20260906005802 53 131 1.0 2.0 0.00 0.00 0.00 84
20260906005702 53 131 1.0 2.0 0.00 0.00 0.00 83
20260906005624 53 131 1.0 4.0 0.00 0.00 0.00 83
20260906005502 53 131 1.0 5.0 0.00 0.00 0.00 83
20260906005402 53 132 1.0 5.0 0.00 0.00 0.00 83
20260906005306 53 132 2.0 6.0 0.00 0.00 0.00 83
20260906005223 53 134 2.0 6.0 0.00 0.00 0.00 83
20260906005102 53 138 2.0 6.0 0.00 0.00 0.00 82
20260906005002 54 138 2.0 6.0 0.00 0.00 0.00 82
20260906004902 54 139 2.0 6.0 0.00 0.00 0.00 82
20260906004802 54 141 2.0 6.0 0.00 0.00 0.00 82
20260906004702 54 146 2.0 6.0 0.00 0.00 0.00 82
20260906004602 54 151 2.0 6.0 0.00 0.00 0.00 82
20260906004523 54 155 2.0 6.0 0.00 0.00 0.00 82
20260906004402 54 160 2.0 6.0 0.00 0.00 0.00 82
20260906004302 54 166 2.0 6.0 0.00 0.00 0.00 82
20260906004202 54 175 2.0 6.0 0.00 0.00 0.00 82
20260906004102 54 181 2.0 6.0 0.00 0.00 0.00 82
20260906004002 54 184 2.0 6.0 0.00 0.00 0.00 82
20260906003902 54 186 1.0 6.0 0.00 0.00 0.00 82
20260906003823 54 191 1.0 6.0 0.00 0.00 0.00 82
20260906003702 54 197 1.0 4.0 0.00 0.00 0.00 82
20260906003602 54 197 1.0 4.0 0.00 0.00 0.00 82
20260906003502 54 197 1.0 4.0 0.00 0.00 0.00 82
20260906003402 54 197 1.0 4.0 0.00 0.00 0.00 82
20260906003302 54 197 1.0 4.0 0.00 0.00 0.00 82
20260906003202 54 197 1.0 2.0 0.00 0.00 0.00 82
20260906003102 54 197 1.0 2.0 0.00 0.00 0.00 82
20260906003002 54 197 1.0 2.0 0.00 0.00 0.00 82
20260906002902 54 197 1.0 2.0 0.00 0.00 0.00 82
20260906002802 54 197 1.0 2.0 0.00 0.00 0.00 82
20260906002723 54 197 1.0 2.0 0.00 0.00 0.00 82
20260906002602 54 197 1.0 2.0 0.00 0.00 0.00 82
20260906002503 54 197 1.0 2.0 0.00 0.00 0.00 82
20260906002423 54 197 1.0 2.0 0.00 0.00 0.00 82
20260906002305 54 197 1.0 2.0 0.00 0.00 0.00 82
20260906002202 54 197 1.0 2.0 0.00 0.00 0.00 82
20260906002102 54 197 1.0 2.0 0.00 0.00 0.00 82
20260906002025 54 197 1.0 2.0 0.00 0.00 0.00 82
20260906001923 54 197 1.0 2.0 0.00 0.00 0.00 82
20260906001802 54 197 1.0 2.0 0.00 0.00 0.00 82
20260906001702 54 197 1.0 2.0 0.00 0.00 0.00 82
20260906001602 54 197 1.0 2.0 0.00 0.00 0.00 82
20260906001502 54 197 1.0 2.0 0.00 0.00 0.00 82
20260906001402 54 197 1.0 2.0 0.00 0.00 0.00 82
20260906001303 54 197 1.0 2.0 0.00 0.00 0.00 82
20260906001202 54 197 1.0 2.0 0.00 0.00 0.00 82
20260906001102 54 197 1.0 2.0 0.00 0.00 0.00 82
20260906001023 54 197 1.0 2.0 0.00 0.00 0.00 82
20260906000902 54 197 1.0 2.0 0.00 0.00 0.00 82
20260906000802 54 197 1.0 2.0 0.00 0.00 0.00 81
20260906000702 54 197 0.0 2.0 0.00 0.00 0.00 81
20260906000602 54 197 0.0 2.0 0.00 0.00 0.00 81
20260906000502 54 197 0.0 2.0 0.00 0.00 0.00 81
20260906000425 54 197 0.0 2.0 0.00 0.00 0.00 81
20260906000303 54 197 0.0 2.0 0.00 0.00 0.00 81
20260906000204 54 197 0.0 2.0 0.00 0.00 0.00 81
20260906000123 54 197 0.0 2.0 0.00 0.00 0.00 81
20260906000002 54 197 0.0 2.0 0.00 0.00 0.00 81
20260905235902 55 197 0.0 2.0 0.00 0.00 0.00 81
20260905235802 55 197 0.0 2.0 0.00 0.00 0.00 81
20260905235702 55 197 1.0 3.0 0.00 0.00 0.00 81
20260905235602 55 197 1.0 4.0 0.00 0.00 0.00 81
20260905235523 55 197 1.0 4.0 0.00 0.00 0.00 81
20260905235402 55 197 1.0 4.0 0.00 0.00 0.00 81
20260905235306 55 197 1.0 4.0 0.00 0.00 0.00 81
20260905235202 55 197 1.0 4.0 0.00 0.00 0.00 81
20260905235102 55 197 2.0 4.0 0.00 0.00 0.00 81
20260905235003 55 197 2.0 5.0 0.00 0.00 0.00 81
20260905234924 55 197 2.0 5.0 0.00 0.00 0.00 81
20260905234802 55 197 2.0 5.0 0.00 0.00 0.00 81
20260905234703 55 197 1.0 5.0 0.00 0.00 0.00 81
20260905234603 55 197 1.0 5.0 0.00 0.00 0.00 81
20260905234502 55 198 1.0 5.0 0.00 0.00 0.00 81
20260905234402 55 198 1.0 5.0 0.00 0.00 0.00 81
20260905234302 55 198 1.0 5.0 0.00 0.00 0.00 81
20260905234202 55 198 0.0 5.0 0.00 0.00 0.00 81
20260905234102 55 198 0.0 5.0 0.00 0.00 0.00 81
20260905234002 55 199 0.0 4.0 0.00 0.00 0.00 81
20260905233923 55 201 0.0 3.0 0.00 0.00 0.00 81
20260905233802 55 220 0.0 1.0 0.00 0.00 0.00 81
20260905233702 55 220 0.0 2.0 0.00 0.00 0.00 81
20260905233602 55 220 0.0 2.0 0.00 0.00 0.00 81
20260905233502 55 220 0.0 2.0 0.00 0.00 0.00 81
20260905233423 55 220 0.0 2.0 0.00 0.00 0.00 81
20260905233303 55 220 0.0 2.0 0.00 0.00 0.00 81
20260905233202 55 220 0.0 2.0 0.00 0.00 0.00 81
20260905233102 55 220 0.0 2.0 0.00 0.00 0.00 81
20260905233002 55 220 1.0 2.0 0.00 0.00 0.00 81
20260905232902 55 222 1.0 2.0 0.00 0.00 0.00 81
20260905232802 55 229 1.0 2.0 0.00 0.00 0.00 81
20260905232702 55 230 1.0 2.0 0.00 0.00 0.00 81
20260905232602 55 238 1.0 2.0 0.00 0.00 0.00 81
20260905232523 55 244 1.0 2.0 0.00 0.00 0.00 81
20260905232403 55 256 0.0 2.0 0.00 0.00 0.00 81
20260905232305 55 262 0.0 2.0 0.00 0.00 0.00 81
20260905232223 55 265 0.0 2.0 0.00 0.00 0.00 81
20260905232123 55 266 0.0 2.0 0.00 0.00 0.00 81
20260905232023 55 267 0.0 2.0 0.00 0.00 0.00 81
20260905231904 55 276 0.0 2.0 0.00 0.00 0.00 81
20260905231802 55 281 0.0 2.0 0.00 0.00 0.00 82
20260905231702 55 281 0.0 2.0 0.00 0.00 0.00 82
20260905231602 55 281 0.0 2.0 0.00 0.00 0.00 82
20260905231523 55 281 0.0 2.0 0.00 0.00 0.00 82
20260905231423 55 0 0.0 0.0 0.00 0.00 0.00 82
20260905231302 55 0 0.0 0.0 0.00 0.00 0.00 82
20260905231202 55 0 0.0 0.0 0.00 0.00 0.00 82
20260905231123 55 0 0.0 0.0 0.00 0.00 0.00 82
20260905231003 55 0 0.0 0.0 0.00 0.00 0.00 82
20260905230902 55 0 0.0 0.0 0.00 0.00 0.00 82
20260905230802 55 0 0.0 0.0 0.00 0.00 0.00 82
20260905230702 55 0 0.0 0.0 0.00 0.00 0.00 82
20260905230624 55 0 0.0 0.0 0.00 0.00 0.00 82
20260905230502 55 0 0.0 0.0 0.00 0.00 0.00 82
20260905230402 55 0 0.0 0.0 0.00 0.00 0.00 82
20260905230303 54 0 0.0 0.0 0.00 0.00 0.00 82
20260905230202 54 0 0.0 0.0 0.00 0.00 0.00 82
20260905230123 54 0 0.0 0.0 0.00 0.00 0.00 82
20260905230003 54 0 0.0 0.0 0.00 0.00 0.00 82
20260905225902 54 0 0.0 0.0 0.00 0.00 0.00 81
20260905225803 54 0 0.0 0.0 0.00 0.00 0.00 81
20260905225703 54 0 0.0 0.0 0.00 0.00 0.00 81
20260905225603 55 0 0.0 0.0 0.00 0.00 0.00 81
20260905225523 55 0 0.0 0.0 0.00 0.00 0.00 81
20260905225424 55 0 0.0 0.0 0.00 0.00 0.00 81
20260905225323 55 0 0.0 0.0 0.00 0.00 0.00 81
20260905225202 55 0 0.0 0.0 0.00 0.00 0.00 81
20260905225102 55 0 0.0 0.0 0.00 0.00 0.00 81
20260905225002 55 0 0.0 0.0 0.00 0.00 0.00 80
20260905224923 55 0 0.0 0.0 0.00 0.00 0.00 80
20260905224802 55 0 0.0 0.0 0.00 0.00 0.00 81
20260905224723 55 0 0.0 0.0 0.00 0.00 0.00 81
20260905224602 55 0 0.0 0.0 0.00 0.00 0.00 80
20260905224503 55 0 0.0 0.0 0.00 0.00 0.00 80
20260905224425 55 0 0.0 0.0 0.00 0.00 0.00 80
20260905224302 55 0 0.0 0.0 0.00 0.00 0.00 80
20260905224202 55 0 0.0 0.0 0.00 0.00 0.00 80
20260905224123 55 0 0.0 0.0 0.00 0.00 0.00 80
20260905224003 55 281 0.0 1.0 0.00 0.00 0.00 80
20260905223902 55 281 0.0 2.0 0.00 0.00 0.00 80
20260905223802 55 281 0.0 2.0 0.00 0.00 0.00 80
20260905223702 55 282 1.0 2.0 0.00 0.00 0.00 80
20260905223602 55 283 1.0 2.0 0.00 0.00 0.00 80
20260905223502 56 283 1.0 2.0 0.00 0.00 0.00 80
20260905223402 56 283 1.0 2.0 0.00 0.00 0.00 80
20260905223302 56 283 1.0 2.0 0.00 0.00 0.00 80
20260905223202 56 283 1.0 2.0 0.00 0.00 0.00 80
20260905223123 56 283 1.0 2.0 0.00 0.00 0.00 80
20260905223002 56 284 1.0 2.0 0.00 0.00 0.00 80
20260905222903 56 285 1.0 2.0 0.00 0.00 0.00 80
20260905222802 56 286 1.0 2.0 0.00 0.00 0.00 80
20260905222702 56 286 1.0 2.0 0.00 0.00 0.00 80
20260905222602 56 286 1.0 2.0 0.00 0.00 0.00 80
20260905222502 56 286 1.0 2.0 0.00 0.00 0.00 80
20260905222403 56 286 1.0 2.0 0.00 0.00 0.00 80
20260905222306 56 286 1.0 2.0 0.00 0.00 0.00 80
20260905222202 56 286 1.0 2.0 0.00 0.00 0.00 80
20260905222102 56 286 0.0 2.0 0.00 0.00 0.00 81
20260905222002 56 286 0.0 2.0 0.00 0.00 0.00 81
20260905221902 56 286 0.0 2.0 0.00 0.00 0.00 81
20260905221802 56 286 0.0 2.0 0.00 0.00 0.00 81
20260905221702 56 286 0.0 1.0 0.00 0.00 0.00 81
20260905221602 56 0 0.0 0.0 0.00 0.00 0.00 81
20260905221502 56 0 0.0 0.0 0.00 0.00 0.00 81
20260905221423 56 0 0.0 0.0 0.00 0.00 0.00 81
20260905221302 56 0 0.0 0.0 0.00 0.00 0.00 81
20260905221223 56 0 0.0 0.0 0.00 0.00 0.00 81
20260905221124 56 286 0.0 1.0 0.00 0.00 0.00 80
20260905221002 56 286 0.0 1.0 0.00 0.00 0.00 80
20260905220902 56 286 0.0 2.0 0.00 0.00 0.00 80
20260905220802 56 286 1.0 2.0 0.00 0.00 0.00 80
20260905220702 56 286 1.0 2.0 0.00 0.00 0.00 80
20260905220602 56 286 1.0 3.0 0.00 0.00 0.00 80
20260905220523 56 286 1.0 3.0 0.00 0.00 0.00 80
20260905220403 56 286 1.0 4.0 0.00 0.00 0.00 80
20260905220304 56 286 2.0 4.0 0.00 0.00 0.00 80
20260905220202 56 286 2.0 5.0 0.00 0.00 0.00 80
20260905220124 56 286 2.0 5.0 0.00 0.00 0.00 80
20260905220002 56 286 3.0 5.0 0.00 0.00 0.00 80
20260905215903 56 286 3.0 5.0 0.00 0.00 0.00 80
20260905215802 56 286 3.0 5.0 0.00 0.00 0.00 80
20260905215702 56 286 3.0 5.0 0.00 0.00 0.00 80
20260905215602 56 286 3.0 5.0 0.00 0.00 0.00 80
20260905215502 56 286 3.0 5.0 0.00 0.00 0.00 81
20260905215402 56 286 2.0 5.0 0.00 0.00 0.00 81
20260905215305 55 286 2.0 5.0 0.00 0.00 0.00 81
20260905215223 55 286 2.0 5.0 0.00 0.00 0.00 81
20260905215103 55 286 1.0 5.0 0.00 0.00 0.00 80
20260905215002 56 286 1.0 5.0 0.00 0.00 0.00 80
20260905214902 56 286 1.0 4.0 0.00 0.00 0.00 80
20260905214802 56 286 1.0 3.0 0.00 0.00 0.00 79
20260905214702 56 286 1.0 2.0 0.00 0.00 0.00 79
20260905214602 56 286 1.0 2.0 0.00 0.00 0.00 79
20260905214502 56 286 1.0 2.0 0.00 0.00 0.00 79
20260905214403 56 286 1.0 4.0 0.00 0.00 0.00 79
20260905214302 56 286 2.0 4.0 0.00 0.00 0.00 79
20260905214202 56 286 2.0 5.0 0.00 0.00 0.00 78
20260905214102 56 286 3.0 5.0 0.00 0.00 0.00 78
20260905214002 56 287 3.0 5.0 0.00 0.00 0.00 78
20260905213904 56 288 3.0 5.0 0.00 0.00 0.00 78
20260905213803 56 289 3.0 5.0 0.00 0.00 0.00 78
20260905213703 56 289 3.0 5.0 0.00 0.00 0.00 78
20260905213602 56 290 3.0 5.0 0.00 0.00 0.00 78
20260905213503 56 290 3.0 5.0 0.00 0.00 0.00 78
20260905213402 56 290 3.0 5.0 0.00 0.00 0.00 78
20260905213302 56 291 2.0 5.0 0.00 0.00 0.00 78
20260905213223 57 292 2.0 5.0 0.00 0.00 0.00 78
20260905213103 57 293 1.0 5.0 0.00 0.00 0.00 78
20260905213002 56 294 1.0 5.0 0.00 0.00 0.00 78
20260905212902 57 295 1.0 4.0 0.00 0.00 0.00 78
20260905212802 57 295 1.0 4.0 0.00 0.00 0.00 78
20260905212723 57 295 1.0 2.0 0.00 0.00 0.00 78
20260905212602 57 295 1.0 3.0 0.00 0.00 0.00 78
20260905212502 57 295 1.0 4.0 0.00 0.00 0.00 78
20260905212402 57 295 2.0 4.0 0.00 0.00 0.00 78
20260905212305 56 295 2.0 5.0 0.00 0.00 0.00 78
20260905212202 57 295 2.0 5.0 0.00 0.00 0.00 78
20260905212102 56 295 3.0 5.0 0.00 0.00 0.00 78
20260905212003 56 295 3.0 5.0 0.00 0.00 0.00 78
20260905211902 56 295 3.0 5.0 0.00 0.00 0.00 79
20260905211803 56 295 4.0 5.0 0.00 0.00 0.00 79
20260905211702 56 295 4.0 5.0 0.00 0.00 0.00 79
20260905211604 56 295 4.0 5.0 0.00 0.00 0.00 79
20260905211502 56 296 3.0 5.0 0.00 0.00 0.00 79
20260905211404 56 296 3.0 5.0 0.00 0.00 0.00 79
20260905211303 56 296 3.0 5.0 0.00 0.00 0.00 79
20260905211203 56 296 2.0 5.0 0.00 0.00 0.00 79
20260905211103 56 296 2.0 5.0 0.00 0.00 0.00 79
20260905211002 56 296 1.0 5.0 0.00 0.00 0.00 79
20260905210903 57 296 1.0 4.0 0.00 0.00 0.00 79
20260905210802 57 296 1.0 4.0 0.00 0.00 0.00 79
20260905210703 57 296 0.0 4.0 0.00 0.00 0.00 79
20260905210602 57 296 0.0 3.0 0.00 0.00 0.00 79
20260905210502 57 296 0.0 2.0 0.00 0.00 0.00 79
20260905210423 57 296 0.0 1.0 0.00 0.00 0.00 79
20260905210302 57 296 0.0 2.0 0.00 0.00 0.00 78
20260905210202 57 296 1.0 2.0 0.00 0.00 0.00 78
20260905210004 57 296 1.0 2.0 0.00 0.00 0.00 78
20260905205902 57 296 1.0 3.0 0.00 0.00 0.00 78
20260905205823 57 296 1.0 4.0 0.00 0.00 0.00 78
20260905205702 57 297 2.0 4.0 0.00 0.00 0.00 77
20260905205602 57 297 2.0 4.0 0.00 0.00 0.00 77
20260905205503 57 297 2.0 4.0 0.00 0.00 0.00 77
20260905205402 57 297 2.0 4.0 0.00 0.00 0.00 77
20260905205306 57 297 2.0 4.0 0.00 0.00 0.00 77
20260905205225 57 297 2.0 4.0 0.00 0.00 0.00 77
20260905205102 57 297 2.0 4.0 0.00 0.00 0.00 76
20260905205023 57 297 2.0 4.0 0.00 0.00 0.00 76
20260905204903 57 297 2.0 4.0 0.00 0.00 0.00 76
20260905204823 57 297 2.0 4.0 0.00 0.00 0.00 76
20260905204702 57 297 2.0 4.0 0.00 0.00 0.00 77
20260905204602 57 297 1.0 4.0 0.00 0.00 0.00 77
20260905204503 57 297 1.0 4.0 0.00 0.00 0.00 77
20260905204403 57 297 1.0 3.0 0.00 0.00 0.00 77
20260905204303 57 297 1.0 2.0 0.00 0.00 0.00 77
20260905204202 57 297 0.0 2.0 0.00 0.00 0.00 77
20260905204102 57 297 0.0 2.0 0.00 0.00 0.00 77
20260905204003 57 297 0.0 2.0 0.00 0.00 0.00 77
20260905203925 57 297 0.0 1.0 0.00 0.00 0.00 77
20260905203802 57 297 0.0 1.0 0.00 0.00 0.00 76
20260905203703 57 297 0.0 4.0 0.00 0.00 0.00 76
20260905203602 57 297 1.0 5.0 0.00 0.00 0.00 76
20260905203502 57 297 1.0 5.0 0.00 0.00 0.00 76
20260905203403 57 297 2.0 6.0 0.00 0.00 0.00 75
20260905203302 57 297 2.0 6.0 0.00 0.00 0.00 75
20260905203223 58 297 2.0 6.0 0.00 0.00 0.00 75
20260905203102 58 297 2.0 6.0 0.00 0.00 0.00 74
20260905203002 58 297 2.0 6.0 0.00 0.00 0.00 74
20260905202903 58 297 2.0 6.0 0.00 0.00 0.00 74
20260905202802 58 297 2.0 6.0 0.00 0.00 0.00 74
20260905202723 58 297 2.0 6.0 0.00 0.00 0.00 74
20260905202602 58 297 1.0 6.0 0.00 0.00 0.00 74
20260905202503 58 297 0.0 6.0 0.00 0.00 0.00 74
20260905202402 58 297 0.0 5.0 0.00 0.00 0.00 74
20260905202306 58 0 0.0 0.0 0.00 0.00 0.00 74
20260905202202 58 0 0.0 0.0 0.00 0.00 0.00 74
20260905202103 58 0 0.0 0.0 0.00 0.00 0.00 74
20260905202003 58 0 0.0 0.0 0.00 0.00 0.00 74
20260905201923 58 0 0.0 0.0 0.00 0.00 0.00 74
20260905201802 59 0 0.0 0.0 0.00 0.00 0.00 74
20260905201703 59 0 0.0 0.0 0.00 0.00 0.00 74
20260905201603 59 0 0.0 0.0 0.00 0.00 0.00 74
20260905201524 59 0 0.0 0.0 0.00 0.00 0.00 74
20260905201403 59 0 0.0 0.0 0.00 0.00 0.00 75
20260905201303 58 0 0.0 0.0 0.00 0.00 0.00 75
20260905201223 58 0 0.0 0.0 0.00 0.00 0.00 75
20260905201102 58 0 0.0 0.0 0.00 0.00 0.00 75
20260905201002 58 0 0.0 0.0 0.00 0.00 0.00 75
20260905200902 58 0 0.0 0.0 0.00 0.00 0.00 75
20260905200824 58 0 0.0 0.0 0.00 0.00 0.00 75
20260905200702 58 0 0.0 0.0 0.00 0.00 0.00 74
20260905200602 58 0 0.0 0.0 0.00 0.00 0.00 74
20260905200502 59 0 0.0 0.0 0.00 0.00 0.00 74
20260905200402 59 0 0.0 0.0 0.00 0.00 0.00 74
20260905200302 59 0 0.0 0.0 0.00 0.00 0.00 73
20260905200203 59 0 0.0 0.0 0.00 0.00 0.00 73
20260905200024 59 251 0.0 1.0 0.00 0.00 0.00 73
20260905195902 59 251 0.0 1.0 0.00 0.00 0.00 73
20260905195802 59 251 0.0 1.0 0.00 0.00 0.00 73
20260905195703 59 251 1.0 2.0 0.00 0.00 0.00 73
20260905195603 59 251 1.0 2.0 0.00 0.00 0.00 73
20260905195524 59 251 1.0 3.0 0.00 0.00 0.00 73
20260905195403 59 251 1.0 3.0 0.00 0.00 0.00 73
20260905195306 59 251 1.0 3.0 0.00 0.00 0.00 73
20260905195202 59 251 1.0 3.0 0.00 0.00 0.00 73
20260905195102 59 251 1.0 3.0 0.00 0.00 0.00 73
20260905195002 59 251 1.0 3.0 0.00 0.00 0.00 72
20260905194903 60 251 1.0 4.0 0.00 0.00 0.00 72
20260905194824 60 253 1.0 4.0 0.00 0.00 0.00 72
20260905194703 60 257 1.0 4.0 0.00 0.00 0.00 72
20260905194602 60 260 1.0 4.0 0.00 0.00 0.00 72
20260905194502 60 264 2.0 4.0 0.00 0.00 0.00 72
20260905194402 60 267 2.0 7.0 0.00 0.00 0.00 72
20260905194303 60 268 2.0 7.0 0.00 0.00 0.00 72
20260905194223 60 268 2.0 7.0 0.00 0.00 0.00 72
20260905194102 60 268 3.0 7.0 0.00 0.00 0.00 72
20260905194002 60 268 2.0 7.0 0.00 0.00 0.00 72
20260905193923 60 268 2.0 7.0 0.00 0.00 0.00 72
20260905193803 60 269 2.0 7.0 0.00 0.00 0.00 72
20260905193702 60 269 2.0 7.0 0.00 0.00 0.00 72
20260905193603 60 268 2.0 7.0 0.00 0.00 0.00 72
20260905193523 60 268 2.0 7.0 0.00 0.00 0.00 72
20260905193402 60 265 1.0 7.0 0.00 0.00 0.00 71
20260905193302 60 265 0.0 4.0 0.00 0.00 0.00 71
20260905193203 60 266 0.0 3.0 0.00 0.00 0.00 71
20260905193103 60 266 0.0 2.0 0.00 0.00 0.00 71
20260905193003 60 0 0.0 0.0 0.00 0.00 0.00 71
20260905192924 60 0 0.0 0.0 0.00 0.00 0.00 71
20260905192804 60 266 0.0 2.0 0.00 0.00 0.00 71
20260905192703 60 266 1.0 4.0 0.00 0.00 0.00 71
20260905192602 60 264 1.0 4.0 0.00 0.00 0.00 71
20260905192523 60 264 1.0 4.0 0.00 0.00 0.00 71
20260905192423 60 264 1.0 4.0 0.00 0.00 0.00 71
20260905192305 60 263 2.0 5.0 0.00 0.00 0.00 70
20260905192223 60 263 2.0 5.0 0.00 0.00 0.00 70
20260905192103 60 263 2.0 5.0 0.00 0.00 0.00 70
20260905192002 60 263 3.0 5.0 0.00 0.00 0.00 70
20260905191902 60 263 3.0 5.0 0.00 0.00 0.00 70
20260905191802 60 263 3.0 5.0 0.00 0.00 0.00 70
20260905191703 61 263 3.0 5.0 0.00 0.00 0.00 70
20260905191602 61 263 3.0 5.0 0.00 0.00 0.00 70
20260905191503 61 263 3.0 5.0 0.00 0.00 0.00 70
20260905191402 61 263 2.0 5.0 0.00 0.00 0.00 70
20260905191303 61 263 2.0 5.0 0.00 0.00 0.00 70
20260905191225 61 264 2.0 5.0 0.00 0.00 0.00 70
20260905191124 61 264 1.0 5.0 0.00 0.00 0.00 70
20260905191003 61 264 1.0 5.0 0.00 0.00 0.00 70
20260905190903 61 264 0.0 5.0 0.00 0.00 0.00 70
20260905190802 61 264 0.0 5.0 0.00 0.00 0.00 70
20260905190703 61 0 0.0 0.0 0.00 0.00 0.00 70
20260905190603 61 0 0.0 0.0 0.00 0.00 0.00 70
20260905190502 61 0 0.0 0.0 0.00 0.00 0.00 70
20260905190402 61 0 0.0 0.0 0.00 0.00 0.00 70
20260905190324 61 0 0.0 0.0 0.00 0.00 0.00 70
20260905190203 61 265 0.0 1.0 0.00 0.00 0.00 70
20260905190002 61 265 0.0 2.0 0.00 0.00 0.00 70
20260905185923 61 265 0.0 5.0 0.00 0.00 0.00 70
20260905185803 61 270 1.0 6.0 0.00 0.00 0.00 70
20260905185703 61 272 2.0 7.0 0.00 0.00 0.00 70
20260905185623 61 273 2.0 7.0 0.00 0.00 0.00 70
20260905185502 61 274 3.0 8.0 0.00 0.00 0.00 70
20260905185402 61 275 4.0 8.0 0.00 0.00 0.00 69
20260905185305 61 275 4.0 8.0 0.00 0.00 0.00 69
20260905185224 61 275 4.0 8.0 0.00 0.00 0.00 69
20260905185103 61 273 5.0 8.0 0.00 0.00 0.00 69
20260905185024 61 272 5.0 8.0 0.00 0.00 0.00 69
20260905184902 62 271 5.0 8.0 0.00 0.00 0.00 69
20260905184824 62 271 5.0 8.0 0.00 0.00 0.00 69
20260905184702 62 270 4.0 8.0 0.00 0.00 0.00 69
20260905184623 62 270 4.0 8.0 0.00 0.00 0.00 69
20260905184503 62 268 3.0 7.0 0.00 0.00 0.00 69
20260905184423 62 267 3.0 7.0 0.00 0.00 0.00 69
20260905184302 62 264 2.0 5.0 0.00 0.00 0.00 68
20260905184202 62 264 2.0 5.0 0.00 0.00 0.00 68
20260905184124 62 265 2.0 5.0 0.00 0.00 0.00 68
20260905184002 62 275 2.0 6.0 0.00 0.00 0.00 68
20260905183924 62 278 2.0 6.0 0.00 0.00 0.00 68
20260905183823 62 281 2.0 6.0 0.00 0.00 0.00 68
20260905183703 62 279 3.0 6.0 0.00 0.00 0.00 67
20260905183603 62 283 3.0 8.0 0.00 0.00 0.00 67
20260905183503 62 283 4.0 8.0 0.00 0.00 0.00 67
20260905183402 62 284 4.0 9.0 0.00 0.00 0.00 67
20260905183303 62 284 5.0 10.0 0.00 0.00 0.00 67
20260905183204 62 285 6.0 12.0 0.00 0.00 0.00 67
20260905183124 62 285 6.0 12.0 0.00 0.00 0.00 67
20260905183023 62 284 6.0 12.0 0.00 0.00 0.00 67
20260905182903 62 284 7.0 12.0 0.00 0.00 0.00 67
20260905182803 62 284 7.0 12.0 0.00 0.00 0.00 67
20260905182723 62 284 7.0 12.0 0.00 0.00 0.00 67
20260905182603 62 284 8.0 12.0 0.00 0.00 0.00 67
20260905182502 62 285 7.0 12.0 0.00 0.00 0.00 67
20260905182403 62 286 7.0 12.0 0.00 0.00 0.00 67
20260905182305 62 287 7.0 12.0 0.00 0.00 0.00 67
20260905182202 62 287 7.0 10.0 0.00 0.00 0.00 67
20260905182123 62 288 7.0 10.0 0.00 0.00 0.00 67
20260905182003 62 290 7.0 10.0 0.00 0.00 0.00 67
20260905181903 62 292 7.0 10.0 0.00 0.00 0.00 67
20260905181802 63 294 7.0 10.0 0.00 0.00 0.00 67
20260905181702 63 295 7.0 11.0 0.00 0.00 0.00 67
20260905181603 63 297 7.0 11.0 0.00 0.00 0.00 67
20260905181503 63 298 7.0 11.0 0.00 0.00 0.00 67
20260905181403 63 298 7.0 11.0 0.00 0.00 0.00 66
20260905181303 63 299 8.0 11.0 0.00 0.00 0.00 66
20260905181203 63 299 8.0 11.0 0.00 0.00 0.00 66
20260905181103 63 298 8.0 12.0 0.00 0.00 0.00 65
20260905181002 63 298 8.0 12.0 0.00 0.00 0.00 66
20260905180902 63 298 8.0 12.0 0.00 0.00 0.00 65
20260905180803 63 298 9.0 12.0 0.00 0.00 0.00 66
20260905180702 63 297 9.0 13.0 0.00 0.00 0.00 65
20260905180602 63 297 9.0 13.0 0.00 0.00 0.00 65
20260905180524 64 296 9.0 13.0 0.00 0.00 0.00 65
20260905180402 64 295 10.0 13.0 0.00 0.00 0.00 65
20260905180302 64 294 10.0 13.0 0.00 0.00 0.00 65
20260905180202 64 293 10.0 13.0 0.00 0.00 0.00 65
20260905180003 64 292 9.0 13.0 0.00 0.00 0.00 64
20260905175902 64 291 9.0 13.0 0.00 0.00 0.00 64
20260905175803 64 290 8.0 13.0 0.00 0.00 0.00 64
20260905175703 64 288 8.0 13.0 0.00 0.00 0.00 64
20260905175603 64 285 7.0 13.0 0.00 0.00 0.00 63
20260905175503 64 283 7.0 13.0 0.00 0.00 0.00 65
20260905175423 64 282 7.0 13.0 0.00 0.00 0.00 65
20260905175324 64 281 7.0 12.0 0.00 0.00 0.00 64
20260905175223 64 279 7.0 12.0 0.00 0.00 0.00 64
20260905175102 64 276 6.0 12.0 0.00 0.00 0.00 64
20260905175002 64 274 6.0 9.0 0.00 0.00 0.00 65
20260905174904 64 274 6.0 9.0 0.00 0.00 0.00 64
20260905174803 64 276 6.0 9.0 0.00 0.00 0.00 64
20260905174702 64 277 7.0 10.0 0.00 0.00 0.00 64
20260905174603 64 278 7.0 10.0 0.00 0.00 0.00 63
20260905174502 64 279 7.0 11.0 0.00 0.00 0.00 64
20260905174403 64 280 7.0 11.0 0.00 0.00 0.00 63
20260905174303 65 282 7.0 11.0 0.00 0.00 0.00 64
20260905174224 65 283 7.0 13.0 0.00 0.00 0.00 64
20260905174102 65 282 8.0 13.0 0.00 0.00 0.00 64
20260905174003 65 282 8.0 13.0 0.00 0.00 0.00 63
20260905173902 65 282 8.0 13.0 0.00 0.00 0.00 63
20260905173824 65 282 8.0 13.0 0.00 0.00 0.00 63
20260905173723 65 283 8.0 13.0 0.00 0.00 0.00 63
20260905173602 65 283 8.0 13.0 0.00 0.00 0.00 63
20260905173523 65 283 8.0 13.0 0.00 0.00 0.00 63
20260905173402 65 281 9.0 13.0 0.00 0.00 0.00 63
20260905173303 65 280 9.0 13.0 0.00 0.00 0.00 63
20260905173223 65 279 9.0 13.0 0.00 0.00 0.00 63
20260905173103 65 278 9.0 13.0 0.00 0.00 0.00 63
20260905173004 65 276 9.0 14.0 0.00 0.00 0.00 63
20260905172903 65 276 10.0 16.0 0.00 0.00 0.00 63
20260905172803 65 274 9.0 16.0 0.00 0.00 0.00 63
20260905172702 65 271 10.0 16.0 0.00 0.00 0.00 63
20260905172602 65 271 10.0 16.0 0.00 0.00 0.00 63
20260905172503 65 272 10.0 16.0 0.00 0.00 0.00 62
20260905172403 65 271 10.0 16.0 0.00 0.00 0.00 62
20260905172305 65 270 10.0 16.0 0.00 0.00 0.00 62
20260905172202 65 271 9.0 16.0 0.00 0.00 0.00 62
20260905172103 65 272 9.0 16.0 0.00 0.00 0.00 62
20260905172002 65 271 9.0 16.0 0.00 0.00 0.00 63
20260905171903 65 272 9.0 13.0 0.00 0.00 0.00 63
20260905171803 65 274 9.0 13.0 0.00 0.00 0.00 63
20260905171702 65 277 8.0 13.0 0.00 0.00 0.00 63
20260905171603 65 277 8.0 13.0 0.00 0.00 0.00 63
20260905171502 65 276 8.0 13.0 0.00 0.00 0.00 62
20260905171402 65 275 8.0 13.0 0.00 0.00 0.00 62
20260905171303 66 274 7.0 13.0 0.00 0.00 0.00 62
20260905171202 66 272 7.0 12.0 0.00 0.00 0.00 63
20260905171102 66 270 7.0 10.0 0.00 0.00 0.00 63
20260905171002 66 270 7.0 12.0 0.00 0.00 0.00 62
20260905170902 66 269 7.0 12.0 0.00 0.00 0.00 62
20260905170803 66 268 7.0 12.0 0.00 0.00 0.00 62
20260905170703 66 267 7.0 12.0 0.00 0.00 0.00 62
20260905170623 66 268 7.0 12.0 0.00 0.00 0.00 62
20260905170524 66 270 8.0 12.0 0.00 0.00 0.00 62
20260905170423 66 274 8.0 12.0 0.00 0.00 0.00 63
20260905170303 66 278 8.0 12.0 0.00 0.00 0.00 62
20260905170204 66 280 8.0 12.0 0.00 0.00 0.00 61
20260905170125 66 280 8.0 12.0 0.00 0.00 0.00 61
20260905170002 66 283 8.0 12.0 0.00 0.00 0.00 61
20260905165903 67 284 8.0 12.0 0.00 0.00 0.00 61
20260905165802 66 284 8.0 12.0 0.00 0.00 0.00 62
20260905165703 67 285 7.0 12.0 0.00 0.00 0.00 61
20260905165624 67 284 7.0 12.0 0.00 0.00 0.00 61
20260905165523 67 283 7.0 12.0 0.00 0.00 0.00 62
20260905165403 67 281 7.0 11.0 0.00 0.00 0.00 63
20260905165306 66 283 7.0 11.0 0.00 0.00 0.00 63
20260905165202 66 282 7.0 13.0 0.00 0.00 0.00 63
20260905165102 66 284 7.0 13.0 0.00 0.00 0.00 64
20260905165003 66 284 8.0 13.0 0.00 0.00 0.00 63
20260905164902 66 283 8.0 13.0 0.00 0.00 0.00 64
20260905164803 66 281 8.0 13.0 0.00 0.00 0.00 64
20260905164702 65 278 8.0 13.0 0.00 0.00 0.00 64
20260905164603 65 277 9.0 13.0 0.00 0.00 0.00 63
20260905164504 65 277 9.0 13.0 0.00 0.00 0.00 63
20260905164402 65 278 9.0 14.0 0.00 0.00 0.00 63
20260905164302 65 277 9.0 14.0 0.00 0.00 0.00 63
20260905164202 65 277 10.0 14.0 0.00 0.00 0.00 62
20260905164102 65 278 10.0 14.0 0.00 0.00 0.00 62
20260905164002 65 279 10.0 14.0 0.00 0.00 0.00 62
20260905163903 65 280 11.0 14.0 0.00 0.00 0.00 62
20260905163803 65 280 10.0 15.0 0.00 0.00 0.00 62
20260905163702 65 281 10.0 15.0 0.00 0.00 0.00 62
20260905163602 65 283 10.0 15.0 0.00 0.00 0.00 61
20260905163503 65 283 9.0 15.0 0.00 0.00 0.00 61
20260905163402 65 283 9.0 15.0 0.00 0.00 0.00 61
20260905163323 65 283 9.0 15.0 0.00 0.00 0.00 61
20260905163202 66 284 9.0 15.0 0.00 0.00 0.00 61
20260905163102 66 286 9.0 15.0 0.00 0.00 0.00 62
20260905163024 66 285 9.0 15.0 0.00 0.00 0.00 62
20260905162924 66 285 9.0 16.0 0.00 0.00 0.00 62
20260905162803 65 289 9.0 16.0 0.00 0.00 0.00 64
20260905162703 65 291 9.0 16.0 0.00 0.00 0.00 63
20260905162624 65 291 9.0 16.0 0.00 0.00 0.00 63
20260905162502 65 291 10.0 18.0 0.00 0.00 0.00 63
20260905162403 65 291 11.0 18.0 0.00 0.00 0.00 63
20260905162305 65 290 11.0 18.0 0.00 0.00 0.00 63
20260905162203 65 291 12.0 18.0 0.00 0.00 0.00 63
20260905162103 65 291 12.0 18.0 0.00 0.00 0.00 63
20260905162003 65 292 12.0 18.0 0.00 0.00 0.00 63
20260905161903 65 292 12.0 18.0 0.00 0.00 0.00 63
20260905161803 65 294 12.0 18.0 0.00 0.00 0.00 63
20260905161703 65 295 13.0 18.0 0.00 0.00 0.00 62
20260905161623 65 296 13.0 18.0 0.00 0.00 0.00 62
20260905161502 65 297 12.0 16.0 0.00 0.00 0.00 62
20260905161403 65 299 12.0 16.0 0.00 0.00 0.00 63
20260905161302 65 300 12.0 16.0 0.00 0.00 0.00 63
20260905161202 65 300 12.0 16.0 0.00 0.00 0.00 63
20260905161103 65 300 12.0 18.0 0.00 0.00 0.00 63
20260905161003 65 300 13.0 18.0 0.00 0.00 0.00 62
20260905160924 65 300 13.0 19.0 0.00 0.00 0.00 62
20260905160803 65 298 12.0 19.0 0.00 0.00 0.00 62
20260905160703 65 296 12.0 19.0 0.00 0.00 0.00 62
20260905160603 65 294 11.0 19.0 0.00 0.00 0.00 62
20260905160502 65 292 11.0 19.0 0.00 0.00 0.00 61
20260905160424 65 291 11.0 19.0 0.00 0.00 0.00 61
20260905160303 66 291 10.0 19.0 0.00 0.00 0.00 61
20260905160203 66 292 10.0 19.0 0.00 0.00 0.00 61
20260905160024 66 293 9.0 19.0 0.00 0.00 0.00 61
20260905155902 66 294 8.0 14.0 0.00 0.00 0.00 61
20260905155802 66 295 8.0 14.0 0.00 0.00 0.00 63
20260905155703 66 297 8.0 13.0 0.00 0.00 0.00 63
20260905155604 66 300 9.0 13.0 0.00 0.00 0.00 63
20260905155503 66 302 9.0 13.0 0.00 0.00 0.00 63
20260905155403 65 302 9.0 13.0 0.00 0.00 0.00 63
20260905155306 65 302 9.0 13.0 0.00 0.00 0.00 62
20260905155202 65 302 9.0 13.0 0.00 0.00 0.00 63
20260905155104 65 302 10.0 13.0 0.00 0.00 0.00 63
20260905155002 65 300 10.0 13.0 0.00 0.00 0.00 63
20260905154902 65 300 10.0 13.0 0.00 0.00 0.00 64
20260905154824 65 299 10.0 14.0 0.00 0.00 0.00 64
20260905154703 65 298 10.0 14.0 0.00 0.00 0.00 64
20260905154603 66 297 10.0 14.0 0.00 0.00 0.00 64
20260905154502 66 296 10.0 14.0 0.00 0.00 0.00 63
20260905154402 66 294 10.0 14.0 0.00 0.00 0.00 63
20260905154303 66 293 10.0 14.0 0.00 0.00 0.00 62
20260905154204 66 292 10.0 14.0 0.00 0.00 0.00 63
20260905154102 66 289 10.0 14.0 0.00 0.00 0.00 63
20260905154023 66 288 10.0 14.0 0.00 0.00 0.00 63
20260905153903 66 287 10.0 14.0 0.00 0.00 0.00 64
20260905153803 66 286 9.0 14.0 0.00 0.00 0.00 64
20260905153703 66 283 9.0 14.0 0.00 0.00 0.00 63
20260905153603 66 283 10.0 14.0 0.00 0.00 0.00 63
20260905153502 66 283 10.0 14.0 0.00 0.00 0.00 63
20260905153403 66 284 10.0 14.0 0.00 0.00 0.00 63
20260905153303 66 284 10.0 16.0 0.00 0.00 0.00 64
20260905153224 66 284 10.0 16.0 0.00 0.00 0.00 64
20260905153124 66 284 11.0 16.0 0.00 0.00 0.00 63
20260905153003 66 287 11.0 16.0 0.00 0.00 0.00 62
20260905152903 66 288 11.0 16.0 0.00 0.00 0.00 62
20260905152803 66 290 11.0 16.0 0.00 0.00 0.00 63
20260905152702 66 292 11.0 16.0 0.00 0.00 0.00 62
20260905152603 67 292 11.0 16.0 0.00 0.00 0.00 61
20260905152503 67 292 11.0 16.0 0.00 0.00 0.00 60
20260905152403 67 295 11.0 16.0 0.00 0.00 0.00 61
20260905152306 68 297 12.0 16.0 0.00 0.00 0.00 61
20260905152203 68 299 12.0 16.0 0.00 0.00 0.00 63
20260905152103 67 299 12.0 16.0 0.00 0.00 0.00 64
20260905152003 67 299 12.0 18.0 0.00 0.00 0.00 62
20260905151903 67 300 13.0 18.0 0.00 0.00 0.00 63
20260905151803 67 301 14.0 22.0 0.00 0.00 0.00 63
20260905151724 67 301 14.0 22.0 0.00 0.00 0.00 63
20260905151602 66 302 14.0 22.0 0.00 0.00 0.00 63
20260905151503 66 300 14.0 22.0 0.00 0.00 0.00 62
20260905151403 66 299 14.0 22.0 0.00 0.00 0.00 63
20260905151302 66 297 14.0 22.0 0.00 0.00 0.00 61
20260905151203 66 296 13.0 22.0 0.00 0.00 0.00 62
20260905151123 66 296 13.0 22.0 0.00 0.00 0.00 62
20260905151003 66 294 13.0 22.0 0.00 0.00 0.00 61
20260905150924 67 293 13.0 22.0 0.00 0.00 0.00 61
20260905150803 67 290 13.0 19.0 0.00 0.00 0.00 61
20260905150724 67 290 13.0 19.0 0.00 0.00 0.00 61
20260905150602 67 287 13.0 19.0 0.00 0.00 0.00 63
20260905150503 67 289 13.0 19.0 0.00 0.00 0.00 62
20260905150402 66 290 14.0 19.0 0.00 0.00 0.00 61
20260905150303 66 292 13.0 22.0 0.00 0.00 0.00 61
20260905150203 66 293 13.0 22.0 0.00 0.00 0.00 61
20260905150124 66 294 13.0 22.0 0.00 0.00 0.00 61
20260905150003 66 294 13.0 22.0 0.00 0.00 0.00 62
20260905145903 66 295 13.0 22.0 0.00 0.00 0.00 62
20260905145803 66 297 13.0 22.0 0.00 0.00 0.00 63
20260905145703 66 297 13.0 22.0 0.00 0.00 0.00 64
20260905145603 66 299 13.0 22.0 0.00 0.00 0.00 63
20260905145524 66 299 13.0 22.0 0.00 0.00 0.00 63
20260905145403 66 299 13.0 22.0 0.00 0.00 0.00 65
20260905145306 66 298 13.0 19.0 0.00 0.00 0.00 64
20260905145223 65 298 13.0 19.0 0.00 0.00 0.00 64
20260905145124 65 298 13.0 19.0 0.00 0.00 0.00 63
20260905145003 66 300 13.0 19.0 0.00 0.00 0.00 63
20260905144903 66 300 13.0 19.0 0.00 0.00 0.00 63
20260905144802 66 298 12.0 19.0 0.00 0.00 0.00 63
20260905144703 66 297 12.0 19.0 0.00 0.00 0.00 62
20260905144603 66 294 12.0 19.0 0.00 0.00 0.00 63
20260905144503 66 292 11.0 18.0 0.00 0.00 0.00 64
20260905144403 66 290 11.0 16.0 0.00 0.00 0.00 63
20260905144302 66 290 11.0 16.0 0.00 0.00 0.00 63
20260905144203 66 289 11.0 16.0 0.00 0.00 0.00 64
20260905144103 66 290 11.0 16.0 0.00 0.00 0.00 64
20260905144024 66 289 11.0 15.0 0.00 0.00 0.00 64
20260905143903 66 289 11.0 18.0 0.00 0.00 0.00 62
20260905143802 66 289 11.0 18.0 0.00 0.00 0.00 63
20260905143703 66 289 11.0 18.0 0.00 0.00 0.00 64
20260905143603 66 289 11.0 18.0 0.00 0.00 0.00 63
20260905143524 66 289 11.0 18.0 0.00 0.00 0.00 63
20260905143403 66 290 11.0 18.0 0.00 0.00 0.00 64
20260905143303 66 289 11.0 18.0 0.00 0.00 0.00 63
20260905143203 66 287 11.0 18.0 0.00 0.00 0.00 63